Time,TemperatureF,DewpointF,PressureIn,WindDirection,WindDirectionDegrees,WindSpeedMPH,WindSpeedGustMPH,Humidity,HourlyPrecipIn,Conditions,Clouds,dailyrainin,SoftwareType,DateUTC
2013-04-18 00:00:00,72.9,71.7,29.85,SE,132,4.0,4.0,96,0.00,,SKC,0.00,VWS V13.01,2013-04-18 05:00:00,
2013-04-18 00:01:00,72.9,71.7,29.85,South,177,3.1,4.9,96,0.00,,SKC,0.00,VWS V13.01,2013-04-18 05:01:00,
2013-04-18 00:02:00,72.9,71.7,29.85,South,188,6.7,6.7,96,0.00,,SKC,0.00,VWS V13.01,2013-04-18 05:02:00,
2013-04-18 00:03:00,72.9,71.7,29.85,South,183,4.5,10.1,96,0.00,,SKC,0.00,VWS V13.01,2013-04-18 05:03:00,
2013-04-18 00:04:00,72.9,71.7,29.85,SSW,195,3.1,5.8,96,0.00,,SKC,0.00,VWS V13.01,2013-04-18 05:04:00,
2013-04-18 00:05:00,72.9,71.7,29.85,SE,134,3.6,5.8,96,0.00,,SKC,0.00,VWS V13.01,2013-04-18 05:05:00,
2013-04-18 00:06:00,72.9,72.0,29.85,South,178,4.0,6.7,97,0.00,,SKC,0.00,VWS V13.01,2013-04-18 05:06:00,
2013-04-18 00:07:00,72.9,72.0,29.85,SSE,159,7.6,10.1,97,0.00,,SKC,0.00,VWS V13.01,2013-04-18 05:07:00,
2013-04-18 00:08:00,72.9,72.0,29.85,SSE,157,4.0,6.3,97,0.00,,SKC,0.00,VWS V13.01,2013-04-18 05:08:00,
2013-04-18 00:09:00,72.9,72.0,29.85,South,186,3.1,4.9,97,0.00,,SKC,0.00,VWS V13.01,2013-04-18 05:09:00,
2013-04-18 00:10:00,72.9,72.0,29.85,SSE,151,8.1,8.1,97,0.00,,SKC,0.00,VWS V13.01,2013-04-18 05:10:00,
2013-04-18 00:11:00,72.9,72.0,29.85,SSE,167,5.8,8.1,97,0.00,,SKC,0.00,VWS V13.01,2013-04-18 05:11:00,
2013-04-18 00:12:00,72.9,72.0,29.85,SE,130,5.8,5.8,97,0.00,,SKC,0.00,VWS V13.01,2013-04-18 05:12:00,
2013-04-18 00:13:00,72.9,72.0,29.85,SSE,152,2.7,8.3,97,0.00,,SKC,0.00,VWS V13.01,2013-04-18 05:13:00,
2013-04-18 00:14:00,72.9,72.0,29.85,SE,133,5.4,6.3,97,0.00,,SKC,0.00,VWS V13.01,2013-04-18 05:14:00,
2013-04-18 00:15:00,72.9,72.0,29.85,South,169,3.1,5.4,97,0.00,,SKC,0.00,VWS V13.01,2013-04-18 05:15:00,
2013-04-18 00:16:00,72.9,72.0,29.85,SSE,155,5.8,5.8,97,0.00,,SKC,0.00,VWS V13.01,2013-04-18 05:16:00,
2013-04-18 00:17:00,72.9,72.0,29.85,South,175,4.0,5.8,97,0.00,,SKC,0.00,VWS V13.01,2013-04-18 05:17:00,
2013-04-18 00:18:00,72.9,72.0,29.85,ESE,122,7.6,8.7,97,0.00,,SKC,0.00,VWS V13.01,2013-04-18 05:18:00,
2013-04-18 00:19:00,72.7,71.8,29.85,South,190,5.8,7.6,97,0.00,,SKC,0.00,VWS V13.01,2013-04-18 05:19:00,
2013-04-18 00:20:00,72.7,71.8,29.85,South,184,6.3,8.7,97,0.00,,SKC,0.00,VWS V13.01,2013-04-18 05:20:00,
2013-04-18 00:21:00,72.7,71.8,29.85,SE,143,5.4,6.7,97,0.00,,SKC,0.00,VWS V13.01,2013-04-18 05:21:00,
2013-04-18 00:22:00,72.7,71.8,29.85,SSE,151,4.9,5.4,97,0.00,,SKC,0.00,VWS V13.01,2013-04-18 05:22:00,
2013-04-18 00:23:00,72.7,71.8,29.85,SSE,156,3.1,6.3,97,0.00,,SKC,0.00,VWS V13.01,2013-04-18 05:23:00,
2013-04-18 00:24:00,72.7,71.8,29.85,SE,142,5.8,5.8,97,0.00,,SKC,0.00,VWS V13.01,2013-04-18 05:24:00,
2013-04-18 00:25:00,72.7,71.8,29.85,SE,126,2.7,6.3,97,0.00,,SKC,0.00,VWS V13.01,2013-04-18 05:25:00,
2013-04-18 00:26:00,72.7,71.8,29.85,SSE,161,6.3,6.3,97,0.00,,SKC,0.00,VWS V13.01,2013-04-18 05:26:00,
2013-04-18 00:27:00,72.7,71.8,29.85,South,181,4.0,7.6,97,0.00,,SKC,0.00,VWS V13.01,2013-04-18 05:27:00,
2013-04-18 00:28:00,72.9,72.0,29.85,SE,145,5.8,5.8,97,0.00,,SKC,0.00,VWS V13.01,2013-04-18 05:28:00,
2013-04-18 00:29:00,72.9,72.0,29.85,SE,131,5.4,5.8,97,0.00,,SKC,0.00,VWS V13.01,2013-04-18 05:29:00,
2013-04-18 00:30:00,72.9,72.0,29.85,South,180,4.0,6.3,97,0.00,,SKC,0.00,VWS V13.01,2013-04-18 05:30:00,
2013-04-18 00:31:00,72.9,71.7,29.85,South,186,5.4,8.1,96,0.00,,SKC,0.00,VWS V13.01,2013-04-18 05:31:00,
2013-04-18 00:32:00,72.9,71.7,29.85,South,176,8.1,8.1,96,0.00,,SKC,0.00,VWS V13.01,2013-04-18 05:32:00,
2013-04-18 00:33:00,72.9,71.7,29.85,South,183,6.3,6.3,96,0.00,,SKC,0.00,VWS V13.01,2013-04-18 05:33:00,
2013-04-18 00:34:00,72.9,71.7,29.85,SE,129,5.4,6.3,96,0.00,,SKC,0.00,VWS V13.01,2013-04-18 05:34:00,
2013-04-18 00:35:00,72.9,71.7,29.85,South,184,3.1,5.4,96,0.00,,SKC,0.00,VWS V13.01,2013-04-18 05:35:00,
2013-04-18 00:36:00,72.9,71.7,29.85,SE,142,3.1,4.9,96,0.00,,SKC,0.00,VWS V13.01,2013-04-18 05:36:00,
2013-04-18 00:37:00,72.9,71.7,29.85,SSE,151,3.6,5.4,96,0.00,,SKC,0.00,VWS V13.01,2013-04-18 05:37:00,
2013-04-18 00:38:00,72.9,72.0,29.85,SSE,161,5.4,5.4,97,0.00,,SKC,0.00,VWS V13.01,2013-04-18 05:38:00,
2013-04-18 00:39:00,72.9,72.0,29.85,ESE,114,4.9,5.4,97,0.00,,SKC,0.00,VWS V13.01,2013-04-18 05:39:00,
2013-04-18 00:40:00,72.9,72.0,29.85,SE,135,5.8,6.3,97,0.00,,SKC,0.00,VWS V13.01,2013-04-18 05:40:00,
2013-04-18 00:41:00,72.9,72.0,29.85,South,173,7.6,7.6,97,0.00,,SKC,0.00,VWS V13.01,2013-04-18 05:41:00,
2013-04-18 00:42:00,72.9,72.0,29.85,SE,146,8.3,8.7,97,0.00,,SKC,0.00,VWS V13.01,2013-04-18 05:42:00,
2013-04-18 00:43:00,72.7,71.8,29.85,SSW,194,5.4,8.3,97,0.00,,SKC,0.00,VWS V13.01,2013-04-18 05:43:00,
2013-04-18 00:44:00,72.7,71.8,29.85,SE,137,2.7,5.4,97,0.00,,SKC,0.00,VWS V13.01,2013-04-18 05:44:00,
2013-04-18 00:45:00,72.7,71.8,29.85,SSW,198,5.8,5.8,97,0.00,,SKC,0.00,VWS V13.01,2013-04-18 05:45:00,
2013-04-18 00:46:00,72.7,71.8,29.85,SSW,212,5.8,5.8,97,0.00,,SKC,0.00,VWS V13.01,2013-04-18 05:46:00,
2013-04-18 00:47:00,72.7,71.8,29.85,ESE,115,3.1,5.8,97,0.00,,SKC,0.00,VWS V13.01,2013-04-18 05:47:00,
2013-04-18 00:48:00,72.7,71.8,29.85,South,175,3.6,4.0,97,0.00,,SKC,0.00,VWS V13.01,2013-04-18 05:48:00,
2013-04-18 00:49:00,72.7,72.1,29.85,SE,128,4.0,6.3,98,0.00,,SKC,0.00,VWS V13.01,2013-04-18 05:49:00,
2013-04-18 00:50:00,72.7,72.1,29.85,South,184,6.3,7.6,98,0.00,,SKC,0.00,VWS V13.01,2013-04-18 05:50:00,
2013-04-18 00:51:00,72.7,72.1,29.85,South,177,5.8,6.3,98,0.00,,SKC,0.00,VWS V13.01,2013-04-18 05:51:00,
2013-04-18 00:52:00,72.7,72.1,29.85,SSE,165,3.6,5.8,98,0.00,,SKC,0.00,VWS V13.01,2013-04-18 05:52:00,
2013-04-18 00:53:00,72.7,72.1,29.85,South,178,8.7,8.7,98,0.00,,SKC,0.00,VWS V13.01,2013-04-18 05:53:00,
2013-04-18 00:54:00,72.5,71.9,29.85,SSW,202,5.8,8.7,98,0.00,,SKC,0.00,VWS V13.01,2013-04-18 05:54:00,
2013-04-18 00:55:00,72.5,71.9,29.85,South,176,5.8,5.8,98,0.00,,SKC,0.00,VWS V13.01,2013-04-18 05:55:00,
2013-04-18 00:56:00,72.5,71.9,29.85,SSW,195,3.6,5.8,98,0.00,,SKC,0.00,VWS V13.01,2013-04-18 05:56:00,
2013-04-18 00:57:00,72.5,71.9,29.85,SE,127,4.0,4.0,98,0.00,,SKC,0.00,VWS V13.01,2013-04-18 05:57:00,
2013-04-18 00:58:00,72.5,71.9,29.85,SSE,162,4.0,5.4,98,0.00,,SKC,0.00,VWS V13.01,2013-04-18 05:58:00,
2013-04-18 00:59:00,72.5,71.9,29.85,South,191,5.4,8.1,98,0.00,,SKC,0.00,VWS V13.01,2013-04-18 05:59:00,
2013-04-18 01:00:00,72.5,71.9,29.85,SSE,148,5.4,5.4,98,0.00,,SKC,0.00,VWS V13.01,2013-04-18 06:00:00,
2013-04-18 01:01:00,72.5,71.9,29.85,SSE,161,2.2,6.3,98,0.00,,SKC,0.00,VWS V13.01,2013-04-18 06:01:00,
2013-04-18 01:02:00,72.5,71.9,29.85,South,189,6.3,6.3,98,0.00,,SKC,0.00,VWS V13.01,2013-04-18 06:02:00,
2013-04-18 01:03:00,72.5,71.9,29.85,SSE,152,4.0,8.7,98,0.00,,SKC,0.00,VWS V13.01,2013-04-18 06:03:00,
2013-04-18 01:04:00,72.5,71.9,29.85,South,188,5.4,5.4,98,0.00,,SKC,0.00,VWS V13.01,2013-04-18 06:04:00,
2013-04-18 01:05:00,72.5,71.9,29.85,SE,143,2.7,7.6,98,0.00,,SKC,0.00,VWS V13.01,2013-04-18 06:05:00,
2013-04-18 01:06:00,72.5,71.9,29.85,South,169,8.3,8.3,98,0.00,,SKC,0.00,VWS V13.01,2013-04-18 06:06:00,
2013-04-18 01:07:00,72.5,71.9,29.85,SSE,149,4.9,8.3,98,0.00,,SKC,0.00,VWS V13.01,2013-04-18 06:07:00,
2013-04-18 01:08:00,72.5,71.9,29.85,SE,134,3.6,8.3,98,0.00,,SKC,0.00,VWS V13.01,2013-04-18 06:08:00,
2013-04-18 01:09:00,72.5,71.9,29.85,SSW,209,2.7,3.6,98,0.00,,SKC,0.00,VWS V13.01,2013-04-18 06:09:00,
2013-04-18 01:10:00,72.5,71.9,29.85,SSE,162,5.4,5.4,98,0.00,,SKC,0.00,VWS V13.01,2013-04-18 06:10:00,
2013-04-18 01:11:00,72.5,71.9,29.85,South,186,3.1,4.0,98,0.00,,SKC,0.00,VWS V13.01,2013-04-18 06:11:00,
2013-04-18 01:12:00,72.5,71.9,29.85,SSE,148,3.6,5.4,98,0.00,,SKC,0.00,VWS V13.01,2013-04-18 06:12:00,
2013-04-18 01:13:00,72.5,71.9,29.85,South,180,5.8,5.8,98,0.00,,SKC,0.00,VWS V13.01,2013-04-18 06:13:00,
2013-04-18 01:14:00,72.5,71.9,29.85,South,183,3.6,5.8,98,0.00,,SKC,0.00,VWS V13.01,2013-04-18 06:14:00,
2013-04-18 01:15:00,72.5,71.9,29.83,SE,127,3.6,5.4,98,0.00,,SKC,0.00,VWS V13.01,2013-04-18 06:15:00,
2013-04-18 01:16:00,72.5,71.9,29.83,SE,134,5.8,5.8,98,0.00,,SKC,0.00,VWS V13.01,2013-04-18 06:16:00,
2013-04-18 01:17:00,72.5,71.9,29.83,SE,132,5.4,6.3,98,0.00,,SKC,0.00,VWS V13.01,2013-04-18 06:17:00,
2013-04-18 01:18:00,72.5,71.9,29.83,SW,215,2.7,5.4,98,0.00,,SKC,0.00,VWS V13.01,2013-04-18 06:18:00,
2013-04-18 01:19:00,72.3,71.7,29.83,SW,217,2.7,3.1,98,0.00,,SKC,0.00,VWS V13.01,2013-04-18 06:19:00,
2013-04-18 01:20:00,72.5,71.9,29.83,South,175,5.8,5.8,98,0.00,,SKC,0.00,VWS V13.01,2013-04-18 06:20:00,
2013-04-18 01:21:00,72.3,71.7,29.83,SSE,161,3.6,6.3,98,0.00,,SKC,0.00,VWS V13.01,2013-04-18 06:21:00,
2013-04-18 01:22:00,72.3,71.7,29.83,ESE,122,3.1,4.9,98,0.00,,SKC,0.00,VWS V13.01,2013-04-18 06:22:00,
2013-04-18 01:23:00,72.3,71.7,29.83,SSW,200,4.9,4.9,98,0.00,,SKC,0.00,VWS V13.01,2013-04-18 06:23:00,
2013-04-18 01:24:00,72.3,71.7,29.83,South,187,2.7,4.9,98,0.00,,SKC,0.00,VWS V13.01,2013-04-18 06:24:00,
2013-04-18 01:25:00,72.3,71.7,29.83,SSW,206,6.3,6.3,98,0.00,,SKC,0.00,VWS V13.01,2013-04-18 06:25:00,
2013-04-18 01:26:00,72.3,71.7,29.83,South,185,6.3,6.3,98,0.00,,SKC,0.00,VWS V13.01,2013-04-18 06:26:00,
2013-04-18 01:27:00,72.3,71.7,29.83,South,187,6.3,6.3,98,0.00,,SKC,0.00,VWS V13.01,2013-04-18 06:27:00,
2013-04-18 01:28:00,72.3,71.7,29.83,SSE,156,4.9,5.8,98,0.00,,SKC,0.00,VWS V13.01,2013-04-18 06:28:00,
2013-04-18 01:29:00,72.3,72.0,29.83,South,170,0.0,4.9,99,0.00,,SKC,0.00,VWS V13.01,2013-04-18 06:29:00,
2013-04-18 01:30:00,72.3,72.0,29.83,SSW,212,2.7,3.6,99,0.00,,SKC,0.00,VWS V13.01,2013-04-18 06:30:00,
2013-04-18 01:31:00,72.3,72.0,29.83,SSE,160,4.9,6.3,99,0.00,,SKC,0.00,VWS V13.01,2013-04-18 06:31:00,
2013-04-18 01:32:00,72.3,72.0,29.83,SSE,161,3.1,6.3,99,0.00,,SKC,0.00,VWS V13.01,2013-04-18 06:32:00,
2013-04-18 01:33:00,72.3,72.0,29.83,SSE,153,3.1,3.6,99,0.00,,SKC,0.00,VWS V13.01,2013-04-18 06:33:00,
2013-04-18 01:34:00,72.3,71.7,29.83,SE,127,3.1,3.1,98,0.00,,SKC,0.00,VWS V13.01,2013-04-18 06:34:00,
2013-04-18 01:35:00,72.3,71.7,29.83,SE,138,2.2,4.9,98,0.00,,SKC,0.00,VWS V13.01,2013-04-18 06:35:00,
2013-04-18 01:36:00,72.3,71.7,29.83,SSE,151,3.6,3.6,98,0.00,,SKC,0.00,VWS V13.01,2013-04-18 06:36:00,
2013-04-18 01:37:00,72.3,71.7,29.83,SE,134,4.0,4.0,98,0.00,,SKC,0.00,VWS V13.01,2013-04-18 06:37:00,
2013-04-18 01:38:00,72.3,71.7,29.83,SE,134,0.0,4.9,98,0.00,,SKC,0.00,VWS V13.01,2013-04-18 06:38:00,
2013-04-18 01:39:00,72.3,72.0,29.83,South,176,5.8,5.8,99,0.00,,SKC,0.00,VWS V13.01,2013-04-18 06:39:00,
2013-04-18 01:40:00,72.1,71.8,29.83,SE,137,2.7,5.8,99,0.00,,SKC,0.00,VWS V13.01,2013-04-18 06:40:00,
2013-04-18 01:41:00,72.1,71.8,29.83,SSE,147,3.6,4.0,99,0.00,,SKC,0.00,VWS V13.01,2013-04-18 06:41:00,
2013-04-18 01:42:00,72.1,71.8,29.83,SSW,204,2.7,3.6,99,0.00,,SKC,0.00,VWS V13.01,2013-04-18 06:42:00,
2013-04-18 01:43:00,72.1,71.8,29.83,SSE,159,0.0,5.4,99,0.00,,SKC,0.00,VWS V13.01,2013-04-18 06:43:00,
2013-04-18 01:44:00,72.1,71.8,29.83,South,182,3.1,4.9,99,0.00,,SKC,0.00,VWS V13.01,2013-04-18 06:44:00,
2013-04-18 01:45:00,72.1,71.8,29.83,SSE,163,5.4,5.8,99,0.00,,SKC,0.00,VWS V13.01,2013-04-18 06:45:00,
2013-04-18 01:46:00,72.1,71.8,29.83,South,174,3.6,4.0,99,0.00,,SKC,0.00,VWS V13.01,2013-04-18 06:46:00,
2013-04-18 01:47:00,72.1,71.8,29.83,SSW,197,3.1,4.0,99,0.00,,SKC,0.00,VWS V13.01,2013-04-18 06:47:00,
2013-04-18 01:48:00,72.1,71.8,29.83,SSE,151,2.7,3.6,99,0.00,,SKC,0.00,VWS V13.01,2013-04-18 06:48:00,
2013-04-18 01:49:00,72.1,71.8,29.83,South,178,0.0,2.7,99,0.00,,SKC,0.00,VWS V13.01,2013-04-18 06:49:00,
2013-04-18 01:50:00,72.1,71.8,29.83,SSE,158,0.0,3.1,99,0.00,,SKC,0.00,VWS V13.01,2013-04-18 06:50:00,
2013-04-18 01:51:00,72.1,71.8,29.83,SSE,167,2.7,2.7,99,0.00,,SKC,0.00,VWS V13.01,2013-04-18 06:51:00,
2013-04-18 01:52:00,72.1,71.6,29.83,SE,130,3.1,3.1,98,0.00,,SKC,0.00,VWS V13.01,2013-04-18 06:52:00,
2013-04-18 01:53:00,72.1,71.6,29.83,South,188,2.7,3.6,98,0.00,,SKC,0.00,VWS V13.01,2013-04-18 06:53:00,
2013-04-18 01:54:00,72.1,71.6,29.83,SSE,164,6.3,6.3,98,0.00,,SKC,0.00,VWS V13.01,2013-04-18 06:54:00,
2013-04-18 01:55:00,72.0,71.4,29.83,South,174,4.0,6.3,98,0.00,,SKC,0.00,VWS V13.01,2013-04-18 06:55:00,
2013-04-18 01:56:00,72.0,71.7,29.83,WSW,241,2.7,3.6,99,0.00,,SKC,0.00,VWS V13.01,2013-04-18 06:56:00,
2013-04-18 01:57:00,72.0,71.7,29.83,South,181,2.7,3.6,99,0.00,,SKC,0.00,VWS V13.01,2013-04-18 06:57:00,
2013-04-18 01:58:00,72.0,71.4,29.83,South,180,5.8,5.8,98,0.00,,SKC,0.00,VWS V13.01,2013-04-18 06:58:00,
2013-04-18 01:59:00,72.0,71.4,29.83,South,178,3.1,5.8,98,0.00,,SKC,0.00,VWS V13.01,2013-04-18 06:59:00,
2013-04-18 02:00:00,72.0,71.7,29.83,South,174,3.6,3.6,99,0.00,,SKC,0.00,VWS V13.01,2013-04-18 07:00:00,
2013-04-18 02:01:00,72.0,71.7,29.83,South,172,2.7,3.6,99,0.00,,SKC,0.00,VWS V13.01,2013-04-18 07:01:00,
2013-04-18 02:02:00,72.0,71.7,29.83,South,171,2.2,3.1,99,0.00,,SKC,0.00,VWS V13.01,2013-04-18 07:02:00,
2013-04-18 02:03:00,72.0,71.7,29.83,ESE,114,4.0,4.0,99,0.00,,SKC,0.00,VWS V13.01,2013-04-18 07:03:00,
2013-04-18 02:04:00,72.0,71.7,29.83,ESE,115,2.7,4.0,99,0.00,,SKC,0.00,VWS V13.01,2013-04-18 07:04:00,
2013-04-18 02:05:00,72.0,71.7,29.83,SE,138,2.7,4.9,99,0.00,,SKC,0.00,VWS V13.01,2013-04-18 07:05:00,
2013-04-18 02:06:00,72.0,71.4,29.83,SSE,149,4.0,4.0,98,0.00,,SKC,0.00,VWS V13.01,2013-04-18 07:06:00,
2013-04-18 02:07:00,72.0,71.4,29.83,South,176,2.7,4.0,98,0.00,,SKC,0.00,VWS V13.01,2013-04-18 07:07:00,
2013-04-18 02:08:00,72.0,71.7,29.83,ESE,117,0.0,4.0,99,0.00,,SKC,0.00,VWS V13.01,2013-04-18 07:08:00,
2013-04-18 02:09:00,72.0,71.7,29.83,SSW,212,3.1,3.1,99,0.00,,SKC,0.00,VWS V13.01,2013-04-18 07:09:00,
2013-04-18 02:10:00,72.0,71.7,29.83,South,183,4.0,5.4,99,0.00,,SKC,0.00,VWS V13.01,2013-04-18 07:10:00,
2013-04-18 02:11:00,72.0,71.7,29.83,SSE,156,2.7,4.0,99,0.00,,SKC,0.00,VWS V13.01,2013-04-18 07:11:00,
2013-04-18 02:12:00,71.8,71.5,29.83,South,187,3.6,3.6,99,0.00,,SKC,0.00,VWS V13.01,2013-04-18 07:12:00,
2013-04-18 02:13:00,71.8,71.5,29.83,SSW,199,3.6,5.8,99,0.00,,SKC,0.00,VWS V13.01,2013-04-18 07:13:00,
2013-04-18 02:14:00,71.8,71.5,29.83,SSE,166,2.2,3.6,99,0.00,,SKC,0.00,VWS V13.01,2013-04-18 07:14:00,
2013-04-18 02:15:00,71.8,71.5,29.83,SSE,161,0.0,4.0,99,0.00,,SKC,0.00,VWS V13.01,2013-04-18 07:15:00,
2013-04-18 02:16:00,71.8,71.5,29.83,SSE,163,4.0,4.0,99,0.00,,SKC,0.00,VWS V13.01,2013-04-18 07:16:00,
2013-04-18 02:17:00,71.8,71.5,29.83,South,188,0.0,4.0,99,0.00,,SKC,0.00,VWS V13.01,2013-04-18 07:17:00,
2013-04-18 02:18:00,71.8,71.2,29.83,South,170,5.4,5.4,98,0.00,,SKC,0.00,VWS V13.01,2013-04-18 07:18:00,
2013-04-18 02:19:00,71.8,71.2,29.83,SE,145,3.6,5.4,98,0.00,,SKC,0.00,VWS V13.01,2013-04-18 07:19:00,
2013-04-18 02:20:00,71.8,71.2,29.83,SSE,164,3.1,3.6,98,0.00,,SKC,0.00,VWS V13.01,2013-04-18 07:20:00,
2013-04-18 02:21:00,71.8,71.5,29.83,SSE,156,4.9,4.9,99,0.00,,SKC,0.00,VWS V13.01,2013-04-18 07:21:00,
2013-04-18 02:22:00,71.8,71.5,29.83,SSE,148,2.7,4.9,99,0.00,,SKC,0.00,VWS V13.01,2013-04-18 07:22:00,
2013-04-18 02:23:00,71.8,71.5,29.83,South,184,4.0,4.0,99,0.00,,SKC,0.00,VWS V13.01,2013-04-18 07:23:00,
2013-04-18 02:24:00,71.8,71.5,29.83,SSE,161,6.3,6.7,99,0.00,,SKC,0.00,VWS V13.01,2013-04-18 07:24:00,
2013-04-18 02:25:00,71.8,71.5,29.83,SE,136,2.7,6.3,99,0.00,,SKC,0.00,VWS V13.01,2013-04-18 07:25:00,
2013-04-18 02:26:00,71.8,71.5,29.83,SSE,151,2.7,3.1,99,0.00,,SKC,0.00,VWS V13.01,2013-04-18 07:26:00,
2013-04-18 02:27:00,71.8,71.5,29.83,South,173,5.4,5.4,99,0.00,,SKC,0.00,VWS V13.01,2013-04-18 07:27:00,
2013-04-18 02:28:00,71.8,71.5,29.83,East,79,2.7,3.1,99,0.00,,SKC,0.00,VWS V13.01,2013-04-18 07:28:00,
2013-04-18 02:29:00,71.8,71.5,29.83,South,172,3.6,5.4,99,0.00,,SKC,0.00,VWS V13.01,2013-04-18 07:29:00,
2013-04-18 02:30:00,71.8,71.5,29.80,South,186,2.7,3.6,99,0.00,,SKC,0.00,VWS V13.01,2013-04-18 07:30:00,
2013-04-18 02:31:00,71.8,71.5,29.80,South,187,2.7,3.6,99,0.00,,SKC,0.00,VWS V13.01,2013-04-18 07:31:00,
2013-04-18 02:32:00,71.8,71.5,29.80,SSE,156,2.7,3.1,99,0.00,,SKC,0.00,VWS V13.01,2013-04-18 07:32:00,
2013-04-18 02:33:00,71.6,71.3,29.80,South,179,4.9,4.9,99,0.00,,SKC,0.00,VWS V13.01,2013-04-18 07:33:00,
2013-04-18 02:34:00,71.6,71.3,29.80,SSE,147,2.7,4.9,99,0.00,,SKC,0.00,VWS V13.01,2013-04-18 07:34:00,
2013-04-18 02:35:00,71.6,71.3,29.80,ESE,117,5.8,5.8,99,0.00,,SKC,0.00,VWS V13.01,2013-04-18 07:35:00,
2013-04-18 02:36:00,71.6,71.6,29.80,SSE,158,3.6,5.8,100,0.00,,SKC,0.00,VWS V13.01,2013-04-18 07:36:00,
2013-04-18 02:37:00,71.8,71.8,29.80,SSE,156,2.7,4.0,100,0.00,,SKC,0.00,VWS V13.01,2013-04-18 07:37:00,
2013-04-18 02:38:00,71.8,71.8,29.80,ESE,114,3.1,4.0,100,0.00,,SKC,0.00,VWS V13.01,2013-04-18 07:38:00,
2013-04-18 02:39:00,71.8,71.8,29.80,South,174,0.0,4.9,100,0.00,,SKC,0.00,VWS V13.01,2013-04-18 07:39:00,
2013-04-18 02:40:00,71.8,71.8,29.80,SSE,165,2.2,3.6,100,0.00,,SKC,0.00,VWS V13.01,2013-04-18 07:40:00,
2013-04-18 02:41:00,71.8,71.8,29.80,SSE,155,2.2,4.9,100,0.00,,SKC,0.00,VWS V13.01,2013-04-18 07:41:00,
2013-04-18 02:42:00,71.6,71.6,29.80,SE,131,3.1,3.1,100,0.00,,SKC,0.00,VWS V13.01,2013-04-18 07:42:00,
2013-04-18 02:43:00,71.8,71.8,29.80,SSE,168,3.1,5.8,100,0.00,,SKC,0.00,VWS V13.01,2013-04-18 07:43:00,
2013-04-18 02:44:00,71.8,71.8,29.80,South,186,3.1,8.7,100,0.00,,SKC,0.00,VWS V13.01,2013-04-18 07:44:00,
2013-04-18 02:45:00,71.8,71.8,29.80,SSW,211,4.0,4.0,100,0.00,,SKC,0.00,VWS V13.01,2013-04-18 07:45:00,
2013-04-18 02:46:00,71.8,71.8,29.80,South,172,4.9,7.6,100,0.00,,SKC,0.00,VWS V13.01,2013-04-18 07:46:00,
2013-04-18 02:47:00,71.8,71.8,29.80,SE,145,3.6,4.9,100,0.00,,SKC,0.00,VWS V13.01,2013-04-18 07:47:00,
2013-04-18 02:48:00,71.8,71.8,29.80,ESE,113,0.0,5.8,100,0.00,,SKC,0.00,VWS V13.01,2013-04-18 07:48:00,
2013-04-18 02:49:00,71.8,71.8,29.80,SE,141,5.4,5.4,100,0.00,,SKC,0.00,VWS V13.01,2013-04-18 07:49:00,
2013-04-18 02:50:00,71.8,71.8,29.80,SE,133,2.7,5.8,100,0.00,,SKC,0.00,VWS V13.01,2013-04-18 07:50:00,
2013-04-18 02:51:00,71.8,71.8,29.80,SE,138,4.0,6.3,100,0.00,,SKC,0.00,VWS V13.01,2013-04-18 07:51:00,
2013-04-18 02:52:00,71.8,71.8,29.80,ESE,119,4.0,4.0,100,0.00,,SKC,0.00,VWS V13.01,2013-04-18 07:52:00,
2013-04-18 02:53:00,72.0,72.0,29.80,East,94,3.6,4.0,100,0.00,,SKC,0.00,VWS V13.01,2013-04-18 07:53:00,
2013-04-18 02:54:00,72.0,72.0,29.80,South,169,5.8,5.8,100,0.00,,SKC,0.00,VWS V13.01,2013-04-18 07:54:00,
2013-04-18 02:55:00,72.0,72.0,29.80,ESE,111,3.1,5.8,100,0.00,,SKC,0.00,VWS V13.01,2013-04-18 07:55:00,
2013-04-18 02:56:00,72.0,72.0,29.80,South,171,3.1,6.3,100,0.00,,SKC,0.00,VWS V13.01,2013-04-18 07:56:00,
2013-04-18 02:57:00,72.0,72.0,29.80,SE,128,3.1,3.1,100,0.00,,SKC,0.00,VWS V13.01,2013-04-18 07:57:00,
2013-04-18 02:58:00,72.0,72.0,29.80,SE,126,2.7,8.7,100,0.00,,SKC,0.00,VWS V13.01,2013-04-18 07:58:00,
2013-04-18 02:59:00,72.0,72.0,29.80,ESE,122,3.6,8.3,100,0.00,,SKC,0.00,VWS V13.01,2013-04-18 07:59:00,
2013-04-18 03:00:00,72.0,72.0,29.80,South,184,3.6,4.0,100,0.00,,SKC,0.00,VWS V13.01,2013-04-18 08:00:00,
2013-04-18 03:01:00,72.0,72.0,29.80,East,99,3.6,4.0,100,0.00,,SKC,0.00,VWS V13.01,2013-04-18 08:01:00,
2013-04-18 03:02:00,72.0,72.0,29.80,SSW,192,3.6,3.6,100,0.00,,SKC,0.00,VWS V13.01,2013-04-18 08:02:00,
2013-04-18 03:03:00,72.0,72.0,29.80,South,171,3.1,5.8,100,0.00,,SKC,0.00,VWS V13.01,2013-04-18 08:03:00,
2013-04-18 03:04:00,72.0,72.0,29.80,SE,132,2.7,4.0,100,0.00,,SKC,0.00,VWS V13.01,2013-04-18 08:04:00,
2013-04-18 03:05:00,72.1,72.1,29.80,South,176,4.0,5.4,100,0.00,,SKC,0.00,VWS V13.01,2013-04-18 08:05:00,
2013-04-18 03:06:00,72.1,72.1,29.80,SSE,164,4.9,9.6,100,0.00,,SKC,0.00,VWS V13.01,2013-04-18 08:06:00,
2013-04-18 03:07:00,72.1,72.2,29.80,South,171,5.8,5.8,100,0.00,,SKC,0.00,VWS V13.01,2013-04-18 08:07:00,
2013-04-18 03:08:00,72.1,72.1,29.80,ESE,115,0.0,4.9,100,0.00,,SKC,0.00,VWS V13.01,2013-04-18 08:08:00,
2013-04-18 03:09:00,72.1,72.1,29.80,South,173,7.2,7.2,100,0.00,,SKC,0.00,VWS V13.01,2013-04-18 08:09:00,
2013-04-18 03:10:00,72.1,72.1,29.80,ESE,119,5.8,7.2,100,0.00,,SKC,0.00,VWS V13.01,2013-04-18 08:10:00,
2013-04-18 03:11:00,72.1,72.2,29.80,SSE,165,2.7,6.3,100,0.00,,SKC,0.00,VWS V13.01,2013-04-18 08:11:00,
2013-04-18 03:12:00,72.1,72.1,29.80,South,191,2.7,6.3,100,0.00,,SKC,0.00,VWS V13.01,2013-04-18 08:12:00,
2013-04-18 03:13:00,72.1,72.1,29.80,SSE,154,4.9,4.9,100,0.00,,SKC,0.00,VWS V13.01,2013-04-18 08:13:00,
2013-04-18 03:14:00,72.1,72.1,29.80,SE,135,6.7,6.7,100,0.00,,SKC,0.00,VWS V13.01,2013-04-18 08:14:00,
2013-04-18 03:15:00,72.1,72.1,29.80,ESE,122,4.9,8.3,100,0.00,,SKC,0.00,VWS V13.01,2013-04-18 08:15:00,
2013-04-18 03:16:00,72.1,72.2,29.80,SE,145,4.0,8.3,100,0.00,,SKC,0.00,VWS V13.01,2013-04-18 08:16:00,
2013-04-18 03:17:00,72.1,72.1,29.80,South,178,6.3,8.3,100,0.00,,SKC,0.00,VWS V13.01,2013-04-18 08:17:00,
2013-04-18 03:18:00,72.1,72.1,29.80,ESE,116,4.0,6.3,100,0.00,,SKC,0.00,VWS V13.01,2013-04-18 08:18:00,
2013-04-18 03:19:00,72.1,72.1,29.80,South,181,4.9,7.6,100,0.00,,SKC,0.00,VWS V13.01,2013-04-18 08:19:00,
2013-04-18 03:20:00,72.1,72.1,29.80,SE,141,4.9,5.8,100,0.00,,SKC,0.00,VWS V13.01,2013-04-18 08:20:00,
2013-04-18 03:21:00,72.1,72.2,29.80,SE,143,3.6,4.9,100,0.00,,SKC,0.00,VWS V13.01,2013-04-18 08:21:00,
2013-04-18 03:22:00,72.1,72.1,29.80,SSE,153,3.6,4.9,100,0.00,,SKC,0.00,VWS V13.01,2013-04-18 08:22:00,
2013-04-18 03:23:00,72.1,72.1,29.80,SE,146,3.6,3.6,100,0.00,,SKC,0.00,VWS V13.01,2013-04-18 08:23:00,
2013-04-18 03:24:00,72.1,72.1,29.80,East,93,6.3,6.3,100,0.00,,SKC,0.00,VWS V13.01,2013-04-18 08:24:00,
2013-04-18 03:25:00,72.1,72.1,29.80,South,173,6.3,6.3,100,0.00,,SKC,0.00,VWS V13.01,2013-04-18 08:25:00,
2013-04-18 03:26:00,72.1,71.8,29.80,South,174,6.3,7.6,99,0.00,,SKC,0.00,VWS V13.01,2013-04-18 08:26:00,
2013-04-18 03:27:00,72.1,71.8,29.80,ESE,112,5.4,7.6,99,0.00,,SKC,0.00,VWS V13.01,2013-04-18 08:27:00,
2013-04-18 03:28:00,72.1,71.8,29.80,SSE,148,2.7,6.3,99,0.00,,SKC,0.00,VWS V13.01,2013-04-18 08:28:00,
2013-04-18 03:29:00,72.1,72.1,29.80,SE,138,4.0,4.0,100,0.00,,SKC,0.00,VWS V13.01,2013-04-18 08:29:00,
2013-04-18 03:30:00,72.1,72.1,29.77,South,182,8.7,8.7,100,0.00,,SKC,0.00,VWS V13.01,2013-04-18 08:30:00,
2013-04-18 03:31:00,72.1,71.8,29.77,SSE,158,5.8,8.7,99,0.00,,SKC,0.00,VWS V13.01,2013-04-18 08:31:00,
2013-04-18 03:32:00,72.1,71.8,29.77,South,175,5.4,6.3,99,0.00,,SKC,0.00,VWS V13.01,2013-04-18 08:32:00,
2013-04-18 03:33:00,72.1,71.6,29.77,SE,136,8.7,8.7,98,0.00,,SKC,0.00,VWS V13.01,2013-04-18 08:33:00,
2013-04-18 03:34:00,72.1,71.6,29.77,East,80,9.2,9.2,98,0.00,,SKC,0.00,VWS V13.01,2013-04-18 08:34:00,
2013-04-18 03:35:00,72.1,71.2,29.77,SE,128,6.3,9.2,97,0.00,,SKC,0.00,VWS V13.01,2013-04-18 08:35:00,
2013-04-18 03:36:00,72.1,70.9,29.77,SSW,206,5.4,7.6,96,0.00,,SKC,0.00,VWS V13.01,2013-04-18 08:36:00,
2013-04-18 03:37:00,72.1,70.9,29.77,South,169,6.3,8.7,96,0.00,,SKC,0.00,VWS V13.01,2013-04-18 08:37:00,
2013-04-18 03:38:00,72.1,70.9,29.77,South,171,4.9,6.3,96,0.00,,SKC,0.00,VWS V13.01,2013-04-18 08:38:00,
2013-04-18 03:39:00,72.1,70.9,29.77,South,186,4.9,5.4,96,0.00,,SKC,0.00,VWS V13.01,2013-04-18 08:39:00,
2013-04-18 03:40:00,72.1,70.9,29.77,South,181,5.4,6.3,96,0.00,,SKC,0.00,VWS V13.01,2013-04-18 08:40:00,
2013-04-18 03:41:00,72.3,71.1,29.77,South,181,5.4,5.8,96,0.00,,SKC,0.00,VWS V13.01,2013-04-18 08:41:00,
2013-04-18 03:42:00,72.3,71.1,29.77,SSW,193,5.4,6.3,96,0.00,,SKC,0.00,VWS V13.01,2013-04-18 08:42:00,
2013-04-18 03:43:00,72.3,71.1,29.77,SSE,152,3.1,6.3,96,0.00,,SKC,0.00,VWS V13.01,2013-04-18 08:43:00,
2013-04-18 03:44:00,72.1,70.9,29.77,East,84,3.6,5.8,96,0.00,,SKC,0.00,VWS V13.01,2013-04-18 08:44:00,
2013-04-18 03:45:00,72.1,70.9,29.77,South,173,9.2,9.2,96,0.00,,SKC,0.00,VWS V13.01,2013-04-18 08:45:00,
2013-04-18 03:46:00,72.3,71.1,29.77,SE,130,5.8,9.2,96,0.00,,SKC,0.00,VWS V13.01,2013-04-18 08:46:00,
2013-04-18 03:47:00,72.3,71.1,29.77,SSE,149,6.3,7.6,96,0.00,,SKC,0.00,VWS V13.01,2013-04-18 08:47:00,
2013-04-18 03:48:00,72.3,70.8,29.77,SSE,160,3.6,4.0,95,0.00,,SKC,0.00,VWS V13.01,2013-04-18 08:48:00,
2013-04-18 03:49:00,72.3,70.8,29.77,SE,135,3.1,6.3,95,0.00,,SKC,0.00,VWS V13.01,2013-04-18 08:49:00,
2013-04-18 03:50:00,72.3,70.8,29.77,SSW,192,2.7,3.6,95,0.00,,SKC,0.00,VWS V13.01,2013-04-18 08:50:00,
2013-04-18 03:51:00,72.3,70.8,29.77,SSW,199,4.0,4.0,95,0.00,,SKC,0.00,VWS V13.01,2013-04-18 08:51:00,
2013-04-18 03:52:00,72.3,71.1,29.77,South,181,5.8,10.1,96,0.00,,SKC,0.00,VWS V13.01,2013-04-18 08:52:00,
2013-04-18 03:53:00,72.3,71.1,29.77,SE,143,5.4,6.3,96,0.00,,SKC,0.00,VWS V13.01,2013-04-18 08:53:00,
2013-04-18 03:54:00,72.3,70.8,29.77,SSE,160,3.6,5.8,95,0.00,,SKC,0.00,VWS V13.01,2013-04-18 08:54:00,
2013-04-18 03:55:00,72.3,70.8,29.77,SSW,195,5.4,5.4,95,0.00,,SKC,0.00,VWS V13.01,2013-04-18 08:55:00,
2013-04-18 03:56:00,72.3,70.8,29.77,SSE,164,5.4,8.3,95,0.00,,SKC,0.00,VWS V13.01,2013-04-18 08:56:00,
2013-04-18 03:57:00,72.3,70.8,29.77,South,181,5.8,6.3,95,0.00,,SKC,0.00,VWS V13.01,2013-04-18 08:57:00,
2013-04-18 03:58:00,72.3,70.5,29.77,SSW,203,5.4,8.7,94,0.00,,SKC,0.00,VWS V13.01,2013-04-18 08:58:00,
2013-04-18 03:59:00,72.3,70.5,29.77,SSE,153,5.4,5.4,94,0.00,,SKC,0.00,VWS V13.01,2013-04-18 08:59:00,
2013-04-18 04:00:00,72.3,70.5,29.77,South,174,5.4,7.6,94,0.00,,SKC,0.00,VWS V13.01,2013-04-18 09:00:00,
2013-04-18 04:01:00,72.3,70.8,29.77,ESE,118,4.9,10.5,95,0.00,,SKC,0.00,VWS V13.01,2013-04-18 09:01:00,
2013-04-18 04:02:00,72.3,70.8,29.77,SE,145,3.6,10.5,95,0.00,,SKC,0.00,VWS V13.01,2013-04-18 09:02:00,
2013-04-18 04:03:00,72.3,70.5,29.77,South,169,8.3,8.3,94,0.00,,SKC,0.00,VWS V13.01,2013-04-18 09:03:00,
2013-04-18 04:04:00,72.3,70.5,29.77,SE,141,5.4,8.3,94,0.00,,SKC,0.00,VWS V13.01,2013-04-18 09:04:00,
2013-04-18 04:05:00,72.3,70.8,29.77,SSE,160,4.0,5.4,95,0.00,,SKC,0.00,VWS V13.01,2013-04-18 09:05:00,
2013-04-18 04:06:00,72.3,70.5,29.77,SE,124,6.3,6.3,94,0.00,,SKC,0.00,VWS V13.01,2013-04-18 09:06:00,
2013-04-18 04:07:00,72.3,70.5,29.77,South,170,5.4,6.3,94,0.00,,SKC,0.00,VWS V13.01,2013-04-18 09:07:00,
2013-04-18 04:08:00,72.3,70.5,29.77,SE,145,8.1,8.1,94,0.00,,SKC,0.00,VWS V13.01,2013-04-18 09:08:00,
2013-04-18 04:09:00,72.3,70.8,29.77,South,180,5.4,8.1,95,0.00,,SKC,0.00,VWS V13.01,2013-04-18 09:09:00,
2013-04-18 04:10:00,72.3,70.8,29.77,SSE,162,4.9,10.5,95,0.00,,SKC,0.00,VWS V13.01,2013-04-18 09:10:00,
2013-04-18 04:11:00,72.3,70.8,29.77,South,174,3.1,4.9,95,0.00,,SKC,0.00,VWS V13.01,2013-04-18 09:11:00,
2013-04-18 04:12:00,72.3,71.1,29.77,ESE,109,4.0,4.9,96,0.00,,SKC,0.00,VWS V13.01,2013-04-18 09:12:00,
2013-04-18 04:13:00,72.3,70.8,29.77,South,188,4.9,8.1,95,0.00,,SKC,0.00,VWS V13.01,2013-04-18 09:13:00,
2013-04-18 04:14:00,72.3,70.5,29.77,SE,138,6.3,6.7,94,0.00,,SKC,0.00,VWS V13.01,2013-04-18 09:14:00,
2013-04-18 04:15:00,72.3,70.5,29.77,SE,146,4.9,7.6,94,0.00,,SKC,0.00,VWS V13.01,2013-04-18 09:15:00,
2013-04-18 04:16:00,72.1,70.3,29.77,SE,128,5.4,8.7,94,0.00,,SKC,0.00,VWS V13.01,2013-04-18 09:16:00,
2013-04-18 04:17:00,72.1,70.3,29.77,SSE,154,6.3,8.7,94,0.00,,SKC,0.00,VWS V13.01,2013-04-18 09:17:00,
2013-04-18 04:18:00,72.1,70.3,29.77,SE,128,3.1,6.3,94,0.00,,SKC,0.00,VWS V13.01,2013-04-18 09:18:00,
2013-04-18 04:19:00,72.1,70.3,29.77,South,185,3.1,3.6,94,0.00,,SKC,0.00,VWS V13.01,2013-04-18 09:19:00,
2013-04-18 04:20:00,72.1,70.3,29.77,South,175,3.6,7.2,94,0.00,,SKC,0.00,VWS V13.01,2013-04-18 09:20:00,
2013-04-18 04:21:00,72.1,70.3,29.77,SSE,160,4.0,4.0,94,0.00,,SKC,0.00,VWS V13.01,2013-04-18 09:21:00,
2013-04-18 04:22:00,72.1,70.3,29.77,SE,136,4.9,5.4,94,0.00,,SKC,0.00,VWS V13.01,2013-04-18 09:22:00,
2013-04-18 04:23:00,72.1,70.3,29.77,SE,133,4.9,5.8,94,0.00,,SKC,0.00,VWS V13.01,2013-04-18 09:23:00,
2013-04-18 04:24:00,72.1,70.0,29.77,South,176,3.6,5.8,93,0.00,,SKC,0.00,VWS V13.01,2013-04-18 09:24:00,
2013-04-18 04:25:00,72.1,70.0,29.77,SSE,152,4.0,10.5,93,0.00,,SKC,0.00,VWS V13.01,2013-04-18 09:25:00,
2013-04-18 04:26:00,72.1,70.0,29.77,SSE,163,6.3,8.1,93,0.00,,SKC,0.00,VWS V13.01,2013-04-18 09:26:00,
2013-04-18 04:27:00,72.1,70.0,29.77,SSE,148,5.8,8.1,93,0.00,,SKC,0.00,VWS V13.01,2013-04-18 09:27:00,
2013-04-18 04:28:00,72.1,70.0,29.77,ESE,102,4.0,5.8,93,0.00,,SKC,0.00,VWS V13.01,2013-04-18 09:28:00,
2013-04-18 04:29:00,72.1,70.0,29.77,SSE,166,3.6,6.3,93,0.00,,SKC,0.00,VWS V13.01,2013-04-18 09:29:00,
2013-04-18 04:30:00,72.1,70.0,29.77,South,175,7.6,7.6,93,0.00,,SKC,0.00,VWS V13.01,2013-04-18 09:30:00,
2013-04-18 04:31:00,72.0,69.8,29.77,ESE,122,4.9,6.3,93,0.00,,SKC,0.00,VWS V13.01,2013-04-18 09:31:00,
2013-04-18 04:32:00,72.0,69.8,29.77,South,176,3.6,6.3,93,0.00,,SKC,0.00,VWS V13.01,2013-04-18 09:32:00,
2013-04-18 04:33:00,72.0,69.5,29.77,SSE,162,5.8,7.2,92,0.00,,SKC,0.00,VWS V13.01,2013-04-18 09:33:00,
2013-04-18 04:34:00,72.0,69.5,29.77,SE,124,3.6,6.7,92,0.00,,SKC,0.00,VWS V13.01,2013-04-18 09:34:00,
2013-04-18 04:35:00,72.0,69.5,29.77,ESE,109,4.9,7.6,92,0.00,,SKC,0.00,VWS V13.01,2013-04-18 09:35:00,
2013-04-18 04:36:00,72.0,69.8,29.77,SSW,202,5.8,5.8,93,0.00,,SKC,0.00,VWS V13.01,2013-04-18 09:36:00,
2013-04-18 04:37:00,72.0,69.8,29.77,South,176,2.7,5.8,93,0.00,,SKC,0.00,VWS V13.01,2013-04-18 09:37:00,
2013-04-18 04:38:00,72.0,69.8,29.77,SSE,154,2.7,3.6,93,0.00,,SKC,0.00,VWS V13.01,2013-04-18 09:38:00,
2013-04-18 04:39:00,72.0,69.8,29.77,SSW,199,2.7,3.6,93,0.00,,SKC,0.00,VWS V13.01,2013-04-18 09:39:00,
2013-04-18 04:40:00,72.0,69.8,29.77,South,181,2.2,5.4,93,0.00,,SKC,0.00,VWS V13.01,2013-04-18 09:40:00,
2013-04-18 04:41:00,71.8,69.7,29.77,SE,133,3.6,3.6,93,0.00,,SKC,0.00,VWS V13.01,2013-04-18 09:41:00,
2013-04-18 04:42:00,71.8,69.7,29.77,SSE,158,4.9,4.9,93,0.00,,SKC,0.00,VWS V13.01,2013-04-18 09:42:00,
2013-04-18 04:43:00,71.8,69.7,29.77,SSE,147,4.0,5.8,93,0.00,,SKC,0.00,VWS V13.01,2013-04-18 09:43:00,
2013-04-18 04:44:00,71.8,69.3,29.77,ESE,120,8.7,8.7,92,0.00,,SKC,0.00,VWS V13.01,2013-04-18 09:44:00,
2013-04-18 04:45:00,71.8,69.3,29.77,SSE,160,2.7,8.7,92,0.00,,SKC,0.00,VWS V13.01,2013-04-18 09:45:00,
2013-04-18 04:46:00,71.8,69.3,29.77,ESE,121,6.3,8.1,92,0.00,,SKC,0.00,VWS V13.01,2013-04-18 09:46:00,
2013-04-18 04:47:00,71.8,69.3,29.77,SSE,157,6.3,8.1,92,0.00,,SKC,0.00,VWS V13.01,2013-04-18 09:47:00,
2013-04-18 04:48:00,71.8,69.3,29.77,SSW,193,8.1,8.1,92,0.00,,SKC,0.00,VWS V13.01,2013-04-18 09:48:00,
2013-04-18 04:49:00,71.8,69.3,29.77,SSE,167,5.8,8.1,92,0.00,,SKC,0.00,VWS V13.01,2013-04-18 09:49:00,
2013-04-18 04:50:00,71.8,69.3,29.77,SSE,147,3.6,5.8,92,0.00,,SKC,0.00,VWS V13.01,2013-04-18 09:50:00,
2013-04-18 04:51:00,71.8,69.3,29.77,SSW,192,10.1,10.1,92,0.00,,SKC,0.00,VWS V13.01,2013-04-18 09:51:00,
2013-04-18 04:52:00,71.8,69.3,29.77,SSE,163,2.7,10.1,92,0.00,,SKC,0.00,VWS V13.01,2013-04-18 09:52:00,
2013-04-18 04:53:00,71.8,69.3,29.77,SSW,193,3.1,3.6,92,0.00,,SKC,0.00,VWS V13.01,2013-04-18 09:53:00,
2013-04-18 04:54:00,71.8,69.3,29.77,SSE,148,6.3,7.6,92,0.00,,SKC,0.00,VWS V13.01,2013-04-18 09:54:00,
2013-04-18 04:55:00,71.8,69.3,29.77,SSW,200,5.8,6.3,92,0.00,,SKC,0.00,VWS V13.01,2013-04-18 09:55:00,
2013-04-18 04:56:00,71.8,69.3,29.77,SSE,158,5.4,8.1,92,0.00,,SKC,0.00,VWS V13.01,2013-04-18 09:56:00,
2013-04-18 04:57:00,71.8,69.3,29.77,SSE,147,5.8,5.8,92,0.00,,SKC,0.00,VWS V13.01,2013-04-18 09:57:00,
2013-04-18 04:58:00,71.8,69.3,29.77,SSW,205,3.6,8.1,92,0.00,,SKC,0.00,VWS V13.01,2013-04-18 09:58:00,
2013-04-18 04:59:00,71.8,69.3,29.77,ESE,114,2.7,3.6,92,0.00,,SKC,0.00,VWS V13.01,2013-04-18 09:59:00,
2013-04-18 05:00:00,71.8,69.3,29.77,SE,146,5.4,5.4,92,0.00,,SKC,0.00,VWS V13.01,2013-04-18 10:00:00,
2013-04-18 05:01:00,71.8,69.3,29.77,South,187,3.6,5.8,92,0.00,,SKC,0.00,VWS V13.01,2013-04-18 10:01:00,
2013-04-18 05:02:00,71.8,69.3,29.77,SSE,147,0.0,4.0,92,0.00,,SKC,0.00,VWS V13.01,2013-04-18 10:02:00,
2013-04-18 05:03:00,71.8,69.3,29.77,ESE,119,0.0,3.1,92,0.00,,SKC,0.00,VWS V13.01,2013-04-18 10:03:00,
2013-04-18 05:04:00,71.8,69.3,29.77,South,180,4.9,4.9,92,0.00,,SKC,0.00,VWS V13.01,2013-04-18 10:04:00,
2013-04-18 05:05:00,71.8,69.3,29.77,SE,146,7.6,8.3,92,0.00,,SKC,0.00,VWS V13.01,2013-04-18 10:05:00,
2013-04-18 05:06:00,71.6,69.2,29.77,SSE,162,5.4,7.6,92,0.00,,SKC,0.00,VWS V13.01,2013-04-18 10:06:00,
2013-04-18 05:07:00,71.6,69.2,29.77,SE,142,0.0,5.4,92,0.00,,SKC,0.00,VWS V13.01,2013-04-18 10:07:00,
2013-04-18 05:08:00,71.6,69.2,29.77,ESE,103,4.0,4.9,92,0.00,,SKC,0.00,VWS V13.01,2013-04-18 10:08:00,
2013-04-18 05:09:00,71.6,69.2,29.77,SSW,196,5.8,5.8,92,0.00,,SKC,0.00,VWS V13.01,2013-04-18 10:09:00,
2013-04-18 05:10:00,71.6,69.2,29.77,SW,219,0.0,7.2,92,0.00,,SKC,0.00,VWS V13.01,2013-04-18 10:10:00,
2013-04-18 05:11:00,71.6,69.2,29.77,South,173,2.2,5.8,92,0.00,,SKC,0.00,VWS V13.01,2013-04-18 10:11:00,
2013-04-18 05:12:00,71.6,69.2,29.77,SE,131,0.0,2.2,92,0.00,,SKC,0.00,VWS V13.01,2013-04-18 10:12:00,
2013-04-18 05:13:00,71.6,68.8,29.77,ESE,119,5.4,6.3,91,0.00,,SKC,0.00,VWS V13.01,2013-04-18 10:13:00,
2013-04-18 05:14:00,71.6,69.2,29.77,SE,130,4.5,5.4,92,0.00,,SKC,0.00,VWS V13.01,2013-04-18 10:14:00,
2013-04-18 05:15:00,71.6,69.2,29.77,South,180,4.0,4.5,92,0.00,,SKC,0.00,VWS V13.01,2013-04-18 10:15:00,
2013-04-18 05:16:00,71.6,69.2,29.77,SSE,155,4.0,5.8,92,0.00,,SKC,0.00,VWS V13.01,2013-04-18 10:16:00,
2013-04-18 05:17:00,71.6,69.2,29.77,South,175,4.0,8.1,92,0.00,,SKC,0.00,VWS V13.01,2013-04-18 10:17:00,
2013-04-18 05:18:00,71.6,68.8,29.77,South,183,6.3,6.3,91,0.00,,SKC,0.00,VWS V13.01,2013-04-18 10:18:00,
2013-04-18 05:19:00,71.6,68.8,29.77,SE,135,4.0,7.6,91,0.00,,SKC,0.00,VWS V13.01,2013-04-18 10:19:00,
2013-04-18 05:20:00,71.6,68.8,29.77,South,188,4.0,4.9,91,0.00,,SKC,0.00,VWS V13.01,2013-04-18 10:20:00,
2013-04-18 05:21:00,71.6,68.8,29.77,ESE,122,2.7,5.8,91,0.00,,SKC,0.00,VWS V13.01,2013-04-18 10:21:00,
2013-04-18 05:22:00,71.6,68.8,29.77,South,180,4.0,7.6,91,0.00,,SKC,0.00,VWS V13.01,2013-04-18 10:22:00,
2013-04-18 05:23:00,71.6,68.8,29.77,South,172,3.6,4.9,91,0.00,,SKC,0.00,VWS V13.01,2013-04-18 10:23:00,
2013-04-18 05:24:00,71.6,68.8,29.77,SE,146,5.8,5.8,91,0.00,,SKC,0.00,VWS V13.01,2013-04-18 10:24:00,
2013-04-18 05:25:00,71.6,68.8,29.77,SE,133,5.8,6.3,91,0.00,,SKC,0.00,VWS V13.01,2013-04-18 10:25:00,
2013-04-18 05:26:00,71.6,68.8,29.77,South,172,5.4,8.1,91,0.00,,SKC,0.00,VWS V13.01,2013-04-18 10:26:00,
2013-04-18 05:27:00,71.6,68.8,29.77,SSE,163,6.3,6.3,91,0.00,,SKC,0.00,VWS V13.01,2013-04-18 10:27:00,
2013-04-18 05:28:00,71.6,68.8,29.77,SE,143,0.0,8.7,91,0.00,,SKC,0.00,VWS V13.01,2013-04-18 10:28:00,
2013-04-18 05:29:00,71.6,68.8,29.77,SSW,192,3.6,3.6,91,0.00,,SKC,0.00,VWS V13.01,2013-04-18 10:29:00,
2013-04-18 05:30:00,71.6,68.5,29.77,SSE,161,5.8,10.1,90,0.00,,SKC,0.00,VWS V13.01,2013-04-18 10:30:00,
2013-04-18 05:31:00,71.6,68.5,29.77,SE,143,4.9,7.2,90,0.00,,SKC,0.00,VWS V13.01,2013-04-18 10:31:00,
2013-04-18 05:32:00,71.6,68.5,29.77,SE,131,8.1,8.1,90,0.00,,SKC,0.00,VWS V13.01,2013-04-18 10:32:00,
2013-04-18 05:33:00,71.6,68.5,29.77,SE,141,5.8,5.8,90,0.00,,SKC,0.00,VWS V13.01,2013-04-18 10:33:00,
2013-04-18 05:34:00,71.6,68.5,29.77,SSE,161,4.0,5.8,90,0.00,,SKC,0.00,VWS V13.01,2013-04-18 10:34:00,
2013-04-18 05:35:00,71.6,68.8,29.77,SE,142,5.4,5.4,91,0.00,,SKC,0.00,VWS V13.01,2013-04-18 10:35:00,
2013-04-18 05:36:00,71.6,68.8,29.77,SSE,160,4.9,5.4,91,0.00,,SKC,0.00,VWS V13.01,2013-04-18 10:36:00,
2013-04-18 05:37:00,71.6,68.8,29.77,SE,134,3.1,6.3,91,0.00,,SKC,0.00,VWS V13.01,2013-04-18 10:37:00,
2013-04-18 05:38:00,71.6,68.8,29.77,SSW,193,2.7,3.6,91,0.00,,SKC,0.00,VWS V13.01,2013-04-18 10:38:00,
2013-04-18 05:39:00,71.6,68.8,29.77,South,169,3.6,6.3,91,0.00,,SKC,0.00,VWS V13.01,2013-04-18 10:39:00,
2013-04-18 05:40:00,71.6,68.8,29.77,SSW,195,4.0,4.0,91,0.00,,SKC,0.00,VWS V13.01,2013-04-18 10:40:00,
2013-04-18 05:41:00,71.6,68.8,29.77,SE,134,3.1,6.3,91,0.00,,SKC,0.00,VWS V13.01,2013-04-18 10:41:00,
2013-04-18 05:42:00,71.6,69.2,29.77,SE,136,6.3,6.3,92,0.00,,SKC,0.00,VWS V13.01,2013-04-18 10:42:00,
2013-04-18 05:43:00,71.6,69.2,29.77,SSE,163,3.6,4.0,92,0.00,,SKC,0.00,VWS V13.01,2013-04-18 10:43:00,
2013-04-18 05:44:00,71.6,69.2,29.77,SE,135,7.6,7.6,92,0.00,,SKC,0.00,VWS V13.01,2013-04-18 10:44:00,
2013-04-18 05:45:00,71.8,69.3,29.77,SSE,159,5.4,8.7,92,0.00,,SKC,0.00,VWS V13.01,2013-04-18 10:45:00,
2013-04-18 05:46:00,71.8,69.3,29.77,South,170,5.4,5.8,92,0.00,,SKC,0.00,VWS V13.01,2013-04-18 10:46:00,
2013-04-18 05:47:00,71.8,69.3,29.77,SE,137,4.0,5.4,92,0.00,,SKC,0.00,VWS V13.01,2013-04-18 10:47:00,
2013-04-18 05:48:00,71.8,69.3,29.77,South,185,5.4,10.1,92,0.00,,SKC,0.00,VWS V13.01,2013-04-18 10:48:00,
2013-04-18 05:49:00,71.8,69.0,29.77,SSE,151,5.4,8.1,91,0.00,,SKC,0.00,VWS V13.01,2013-04-18 10:49:00,
2013-04-18 05:50:00,71.8,69.3,29.77,ESE,119,6.3,6.3,92,0.00,,SKC,0.00,VWS V13.01,2013-04-18 10:50:00,
2013-04-18 05:51:00,71.8,69.3,29.77,South,174,8.3,8.3,92,0.00,,SKC,0.00,VWS V13.01,2013-04-18 10:51:00,
2013-04-18 05:52:00,71.8,69.3,29.77,ESE,104,3.1,8.3,92,0.00,,SKC,0.00,VWS V13.01,2013-04-18 10:52:00,
2013-04-18 05:53:00,71.8,69.0,29.77,South,183,4.0,4.9,91,0.00,,SKC,0.00,VWS V13.01,2013-04-18 10:53:00,
2013-04-18 05:54:00,71.8,69.0,29.77,SE,145,4.9,4.9,91,0.00,,SKC,0.00,VWS V13.01,2013-04-18 10:54:00,
2013-04-18 05:55:00,71.8,69.0,29.77,SSE,163,5.4,6.3,91,0.00,,SKC,0.00,VWS V13.01,2013-04-18 10:55:00,
2013-04-18 05:56:00,71.8,69.0,29.77,South,169,3.1,5.4,91,0.00,,SKC,0.00,VWS V13.01,2013-04-18 10:56:00,
2013-04-18 05:57:00,71.8,69.3,29.77,South,186,3.6,4.9,92,0.00,,SKC,0.00,VWS V13.01,2013-04-18 10:57:00,
2013-04-18 05:58:00,71.8,69.3,29.77,SSE,160,6.7,6.7,92,0.00,,SKC,0.00,VWS V13.01,2013-04-18 10:58:00,
2013-04-18 05:59:00,71.8,69.3,29.77,South,183,3.1,6.7,92,0.00,,SKC,0.00,VWS V13.01,2013-04-18 10:59:00,
2013-04-18 06:00:00,71.8,69.3,29.77,SSE,166,5.8,8.1,92,0.00,,SKC,0.00,VWS V13.01,2013-04-18 11:00:00,
2013-04-18 06:01:00,71.8,69.3,29.77,South,183,8.1,8.1,92,0.00,,SKC,0.00,VWS V13.01,2013-04-18 11:01:00,
2013-04-18 06:02:00,71.8,69.3,29.77,South,186,6.3,10.1,92,0.00,,SKC,0.00,VWS V13.01,2013-04-18 11:02:00,
2013-04-18 06:03:00,71.8,69.3,29.77,SSE,151,5.4,5.8,92,0.00,,SKC,0.00,VWS V13.01,2013-04-18 11:03:00,
2013-04-18 06:04:00,71.8,69.3,29.77,SSW,192,8.3,8.3,92,0.00,,SKC,0.00,VWS V13.01,2013-04-18 11:04:00,
2013-04-18 06:05:00,71.8,69.3,29.77,SE,133,4.9,12.8,92,0.00,,SKC,0.00,VWS V13.01,2013-04-18 11:05:00,
2013-04-18 06:06:00,71.8,69.3,29.77,SE,125,4.9,5.8,92,0.00,,SKC,0.00,VWS V13.01,2013-04-18 11:06:00,
2013-04-18 06:07:00,71.8,69.3,29.77,SE,143,5.8,5.8,92,0.00,,SKC,0.00,VWS V13.01,2013-04-18 11:07:00,
2013-04-18 06:08:00,71.8,69.3,29.77,SSE,151,5.8,8.1,92,0.00,,SKC,0.00,VWS V13.01,2013-04-18 11:08:00,
2013-04-18 06:09:00,71.8,69.7,29.77,ESE,117,4.9,7.6,93,0.00,,SKC,0.00,VWS V13.01,2013-04-18 11:09:00,
2013-04-18 06:10:00,71.8,69.7,29.77,SSW,200,8.1,8.1,93,0.00,,SKC,0.00,VWS V13.01,2013-04-18 11:10:00,
2013-04-18 06:11:00,71.8,69.7,29.77,SSE,161,6.3,8.1,93,0.00,,SKC,0.00,VWS V13.01,2013-04-18 11:11:00,
2013-04-18 06:12:00,71.8,69.7,29.77,ESE,117,6.3,7.2,93,0.00,,SKC,0.00,VWS V13.01,2013-04-18 11:12:00,
2013-04-18 06:13:00,71.8,69.3,29.77,SSE,149,6.3,8.1,92,0.00,,SKC,0.00,VWS V13.01,2013-04-18 11:13:00,
2013-04-18 06:14:00,71.8,69.7,29.77,SSE,153,5.8,8.1,93,0.00,,SKC,0.00,VWS V13.01,2013-04-18 11:14:00,
2013-04-18 06:15:00,71.8,69.7,29.77,South,180,5.4,8.3,93,0.00,,SKC,0.00,VWS V13.01,2013-04-18 11:15:00,
2013-04-18 06:16:00,71.8,69.7,29.77,South,173,3.1,5.4,93,0.00,,SKC,0.00,VWS V13.01,2013-04-18 11:16:00,
2013-04-18 06:17:00,71.8,69.7,29.77,SE,128,5.8,5.8,93,0.00,,SKC,0.00,VWS V13.01,2013-04-18 11:17:00,
2013-04-18 06:18:00,71.8,69.7,29.77,ESE,120,6.3,6.3,93,0.00,,SKC,0.00,VWS V13.01,2013-04-18 11:18:00,
2013-04-18 06:19:00,71.8,70.0,29.77,South,185,5.8,6.3,94,0.00,,SKC,0.00,VWS V13.01,2013-04-18 11:19:00,
2013-04-18 06:20:00,71.8,70.0,29.77,South,183,5.8,10.1,94,0.00,,SKC,0.00,VWS V13.01,2013-04-18 11:20:00,
2013-04-18 06:21:00,71.8,70.0,29.77,SSE,166,6.3,6.3,94,0.00,,SKC,0.00,VWS V13.01,2013-04-18 11:21:00,
2013-04-18 06:22:00,71.8,69.7,29.77,South,183,4.9,6.3,93,0.00,,SKC,0.00,VWS V13.01,2013-04-18 11:22:00,
2013-04-18 06:23:00,71.8,69.7,29.77,SE,130,5.8,6.3,93,0.00,,SKC,0.00,VWS V13.01,2013-04-18 11:23:00,
2013-04-18 06:24:00,71.8,69.7,29.77,South,177,5.8,10.1,93,0.00,,SKC,0.00,VWS V13.01,2013-04-18 11:24:00,
2013-04-18 06:25:00,71.8,69.7,29.77,SSE,163,8.7,8.7,93,0.00,,SKC,0.00,VWS V13.01,2013-04-18 11:25:00,
2013-04-18 06:26:00,71.8,69.7,29.77,South,179,5.8,8.7,93,0.00,,SKC,0.00,VWS V13.01,2013-04-18 11:26:00,
2013-04-18 06:27:00,71.8,69.7,29.77,SSE,161,4.9,5.8,93,0.00,,SKC,0.00,VWS V13.01,2013-04-18 11:27:00,
2013-04-18 06:28:00,71.8,69.7,29.77,South,175,8.3,8.3,93,0.00,,SKC,0.00,VWS V13.01,2013-04-18 11:28:00,
2013-04-18 06:29:00,71.8,69.7,29.77,SSE,148,7.6,8.3,93,0.00,,SKC,0.00,VWS V13.01,2013-04-18 11:29:00,
2013-04-18 06:30:00,71.8,69.7,29.77,ESE,119,5.4,7.6,93,0.00,,SKC,0.00,VWS V13.01,2013-04-18 11:30:00,
2013-04-18 06:31:00,71.8,69.3,29.77,SE,141,5.8,5.8,92,0.00,,SKC,0.00,VWS V13.01,2013-04-18 11:31:00,
2013-04-18 06:32:00,71.8,69.3,29.77,SSW,202,3.6,8.7,92,0.00,,SKC,0.00,VWS V13.01,2013-04-18 11:32:00,
2013-04-18 06:33:00,71.8,69.3,29.77,South,182,4.9,7.6,92,0.00,,SKC,0.00,VWS V13.01,2013-04-18 11:33:00,
2013-04-18 06:34:00,71.8,69.7,29.77,South,183,4.0,6.3,93,0.00,,SKC,0.00,VWS V13.01,2013-04-18 11:34:00,
2013-04-18 06:35:00,71.8,69.7,29.77,South,190,6.3,8.1,93,0.00,,SKC,0.00,VWS V13.01,2013-04-18 11:35:00,
2013-04-18 06:36:00,71.8,69.7,29.77,SW,216,3.1,6.3,93,0.00,,SKC,0.00,VWS V13.01,2013-04-18 11:36:00,
2013-04-18 06:37:00,71.8,69.7,29.77,SE,125,5.8,7.6,93,0.00,,SKC,0.00,VWS V13.01,2013-04-18 11:37:00,
2013-04-18 06:38:00,71.8,69.7,29.77,South,187,3.6,4.9,93,0.00,,SKC,0.00,VWS V13.01,2013-04-18 11:38:00,
2013-04-18 06:39:00,71.8,69.7,29.77,SE,145,5.4,5.8,93,0.00,,SKC,0.00,VWS V13.01,2013-04-18 11:39:00,
2013-04-18 06:40:00,71.8,69.7,29.77,SE,145,6.3,6.3,93,0.00,,SKC,0.00,VWS V13.01,2013-04-18 11:40:00,
2013-04-18 06:41:00,71.8,69.0,29.77,SE,136,5.4,9.2,91,0.00,,SKC,0.00,VWS V13.01,2013-04-18 11:41:00,
2013-04-18 06:42:00,71.8,69.0,29.77,SSE,162,3.6,9.6,91,0.00,,SKC,0.00,VWS V13.01,2013-04-18 11:42:00,
2013-04-18 06:43:00,71.8,69.3,29.77,SSE,160,7.6,8.3,92,0.00,,SKC,0.00,VWS V13.01,2013-04-18 11:43:00,
2013-04-18 06:44:00,71.8,69.3,29.77,South,173,4.0,7.6,92,0.00,,SKC,0.00,VWS V13.01,2013-04-18 11:44:00,
2013-04-18 06:45:00,71.8,69.3,29.77,SSE,148,7.6,7.6,92,0.00,,SKC,0.00,VWS V13.01,2013-04-18 11:45:00,
2013-04-18 06:46:00,71.8,69.7,29.77,South,175,8.1,15.4,93,0.00,,SKC,0.00,VWS V13.01,2013-04-18 11:46:00,
2013-04-18 06:47:00,71.8,69.7,29.77,SE,144,5.8,8.1,93,0.00,,SKC,0.00,VWS V13.01,2013-04-18 11:47:00,
2013-04-18 06:48:00,71.8,69.7,29.77,SE,127,5.4,7.2,93,0.00,,SKC,0.00,VWS V13.01,2013-04-18 11:48:00,
2013-04-18 06:49:00,71.8,69.7,29.77,South,181,6.3,6.3,93,0.00,,SKC,0.00,VWS V13.01,2013-04-18 11:49:00,
2013-04-18 06:50:00,71.8,69.7,29.77,SE,144,3.6,6.3,93,0.00,,SKC,0.00,VWS V13.01,2013-04-18 11:50:00,
2013-04-18 06:51:00,71.8,69.7,29.77,SSE,159,7.6,7.6,93,0.00,,SKC,0.00,VWS V13.01,2013-04-18 11:51:00,
2013-04-18 06:52:00,71.8,69.7,29.77,SE,143,5.8,7.6,93,0.00,,SKC,0.00,VWS V13.01,2013-04-18 11:52:00,
2013-04-18 06:53:00,72.0,69.8,29.77,South,184,9.2,9.2,93,0.00,,SKC,0.00,VWS V13.01,2013-04-18 11:53:00,
2013-04-18 06:54:00,72.0,69.8,29.77,SE,139,6.3,10.5,93,0.00,,SKC,0.00,VWS V13.01,2013-04-18 11:54:00,
2013-04-18 06:55:00,72.0,69.5,29.77,SSE,156,7.6,10.5,92,0.00,,SKC,0.00,VWS V13.01,2013-04-18 11:55:00,
2013-04-18 06:56:00,72.0,69.2,29.77,SSE,156,5.8,8.7,91,0.00,,SKC,0.00,VWS V13.01,2013-04-18 11:56:00,
2013-04-18 06:57:00,72.0,68.9,29.77,South,177,10.5,10.5,90,0.00,,SKC,0.00,VWS V13.01,2013-04-18 11:57:00,
2013-04-18 06:58:00,72.0,68.9,29.77,SSE,159,8.1,10.1,90,0.00,,SKC,0.00,VWS V13.01,2013-04-18 11:58:00,
2013-04-18 06:59:00,72.0,68.9,29.77,South,191,11.9,11.9,90,0.00,,SKC,0.00,VWS V13.01,2013-04-18 11:59:00,
2013-04-18 07:00:00,72.0,68.9,29.77,SSE,153,5.4,11.9,90,0.00,,SKC,0.00,VWS V13.01,2013-04-18 12:00:00,
2013-04-18 07:01:00,72.0,69.2,29.77,SSE,147,5.8,6.3,91,0.00,,SKC,0.00,VWS V13.01,2013-04-18 12:01:00,
2013-04-18 07:02:00,72.0,69.2,29.77,SSE,167,3.6,5.8,91,0.00,,SKC,0.00,VWS V13.01,2013-04-18 12:02:00,
2013-04-18 07:03:00,72.0,69.2,29.77,South,183,7.6,10.5,91,0.00,,SKC,0.00,VWS V13.01,2013-04-18 12:03:00,
2013-04-18 07:04:00,72.0,68.9,29.77,SSW,197,8.3,8.3,90,0.00,,SKC,0.00,VWS V13.01,2013-04-18 12:04:00,
2013-04-18 07:05:00,72.0,68.9,29.77,South,175,4.9,8.3,90,0.00,,SKC,0.00,VWS V13.01,2013-04-18 12:05:00,
2013-04-18 07:06:00,72.0,68.9,29.77,SSE,159,8.1,8.1,90,0.00,,SKC,0.00,VWS V13.01,2013-04-18 12:06:00,
2013-04-18 07:07:00,72.0,68.9,29.77,SSE,166,5.4,8.1,90,0.00,,SKC,0.00,VWS V13.01,2013-04-18 12:07:00,
2013-04-18 07:08:00,72.0,68.9,29.77,SSW,196,4.0,8.1,90,0.00,,SKC,0.00,VWS V13.01,2013-04-18 12:08:00,
2013-04-18 07:09:00,72.0,68.9,29.77,SSE,166,5.4,6.3,90,0.00,,SKC,0.00,VWS V13.01,2013-04-18 12:09:00,
2013-04-18 07:10:00,72.0,68.9,29.77,South,175,5.8,5.8,90,0.00,,SKC,0.00,VWS V13.01,2013-04-18 12:10:00,
2013-04-18 07:11:00,72.0,68.9,29.77,SSE,160,7.6,8.1,90,0.00,,SKC,0.00,VWS V13.01,2013-04-18 12:11:00,
2013-04-18 07:12:00,72.0,69.2,29.77,SE,125,5.4,10.1,91,0.00,,SKC,0.00,VWS V13.01,2013-04-18 12:12:00,
2013-04-18 07:13:00,72.1,69.1,29.77,SSE,163,5.8,7.2,90,0.00,,SKC,0.00,VWS V13.01,2013-04-18 12:13:00,
2013-04-18 07:14:00,72.1,69.1,29.77,SE,127,6.3,8.3,90,0.00,,SKC,0.00,VWS V13.01,2013-04-18 12:14:00,
2013-04-18 07:15:00,72.1,69.1,29.80,South,172,5.4,6.3,90,0.00,,SKC,0.00,VWS V13.01,2013-04-18 12:15:00,
2013-04-18 07:16:00,72.1,69.1,29.80,SE,126,4.0,6.3,90,0.00,,SKC,0.00,VWS V13.01,2013-04-18 12:16:00,
2013-04-18 07:17:00,72.1,69.1,29.80,SE,139,5.8,7.6,90,0.00,,SKC,0.00,VWS V13.01,2013-04-18 12:17:00,
2013-04-18 07:18:00,72.1,69.1,29.80,SSE,156,7.6,7.6,90,0.00,,SKC,0.00,VWS V13.01,2013-04-18 12:18:00,
2013-04-18 07:19:00,72.1,69.1,29.80,SE,142,4.9,8.3,90,0.00,,SKC,0.00,VWS V13.01,2013-04-18 12:19:00,
2013-04-18 07:20:00,72.1,69.1,29.80,South,169,5.4,14.5,90,0.00,,SKC,0.00,VWS V13.01,2013-04-18 12:20:00,
2013-04-18 07:21:00,72.1,69.1,29.80,SE,132,5.4,10.1,90,0.00,,SKC,0.00,VWS V13.01,2013-04-18 12:21:00,
2013-04-18 07:22:00,72.1,69.1,29.80,South,170,5.8,5.8,90,0.00,,SKC,0.00,VWS V13.01,2013-04-18 12:22:00,
2013-04-18 07:23:00,72.3,69.2,29.80,ESE,115,9.6,12.3,90,0.00,,SKC,0.00,VWS V13.01,2013-04-18 12:23:00,
2013-04-18 07:24:00,72.3,68.9,29.80,SSE,167,4.0,9.6,89,0.00,,SKC,0.00,VWS V13.01,2013-04-18 12:24:00,
2013-04-18 07:25:00,72.3,68.9,29.80,SSE,152,8.7,8.7,89,0.00,,SKC,0.00,VWS V13.01,2013-04-18 12:25:00,
2013-04-18 07:26:00,72.3,68.9,29.80,SSE,162,8.3,8.7,89,0.00,,SKC,0.00,VWS V13.01,2013-04-18 12:26:00,
2013-04-18 07:27:00,72.3,68.9,29.80,South,177,8.3,8.3,89,0.00,,SKC,0.00,VWS V13.01,2013-04-18 12:27:00,
2013-04-18 07:28:00,72.3,68.9,29.80,South,186,8.7,8.7,89,0.00,,SKC,0.00,VWS V13.01,2013-04-18 12:28:00,
2013-04-18 07:29:00,72.3,68.9,29.80,SSE,161,3.6,8.7,89,0.00,,SKC,0.00,VWS V13.01,2013-04-18 12:29:00,
2013-04-18 07:30:00,72.5,69.1,29.80,ESE,103,8.7,9.2,89,0.00,,SKC,0.00,VWS V13.01,2013-04-18 12:30:00,
2013-04-18 07:31:00,72.5,69.1,29.80,SE,135,5.4,12.8,89,0.00,,SKC,0.00,VWS V13.01,2013-04-18 12:31:00,
2013-04-18 07:32:00,72.5,69.1,29.80,SSE,157,6.3,6.3,89,0.00,,SKC,0.00,VWS V13.01,2013-04-18 12:32:00,
2013-04-18 07:33:00,72.5,68.8,29.80,ESE,122,5.4,6.3,88,0.00,,SKC,0.00,VWS V13.01,2013-04-18 12:33:00,
2013-04-18 07:34:00,72.7,68.9,29.80,SSE,165,6.3,8.7,88,0.00,,SKC,0.00,VWS V13.01,2013-04-18 12:34:00,
2013-04-18 07:35:00,72.7,68.9,29.80,SSE,164,4.9,6.3,88,0.00,,SKC,0.00,VWS V13.01,2013-04-18 12:35:00,
2013-04-18 07:36:00,72.7,68.9,29.80,SSE,151,5.4,5.4,88,0.00,,SKC,0.00,VWS V13.01,2013-04-18 12:36:00,
2013-04-18 07:37:00,72.9,69.1,29.80,ESE,121,4.0,6.3,88,0.00,,SKC,0.00,VWS V13.01,2013-04-18 12:37:00,
2013-04-18 07:38:00,72.9,69.1,29.80,SE,141,4.0,5.4,88,0.00,,SKC,0.00,VWS V13.01,2013-04-18 12:38:00,
2013-04-18 07:39:00,72.9,69.1,29.80,SSE,167,4.9,9.2,88,0.00,,SKC,0.00,VWS V13.01,2013-04-18 12:39:00,
2013-04-18 07:40:00,72.9,69.1,29.80,ESE,111,4.9,7.6,88,0.00,,SKC,0.00,VWS V13.01,2013-04-18 12:40:00,
2013-04-18 07:41:00,73.0,68.9,29.80,SSW,193,2.7,8.3,87,0.00,,SKC,0.00,VWS V13.01,2013-04-18 12:41:00,
2013-04-18 07:42:00,73.0,68.9,29.80,SSE,154,10.5,10.5,87,0.00,,SKC,0.00,VWS V13.01,2013-04-18 12:42:00,
2013-04-18 07:43:00,73.0,68.9,29.80,ESE,103,5.4,8.7,87,0.00,,SKC,0.00,VWS V13.01,2013-04-18 12:43:00,
2013-04-18 07:44:00,73.0,68.9,29.80,SSE,150,5.8,5.8,87,0.00,,SKC,0.00,VWS V13.01,2013-04-18 12:44:00,
2013-04-18 07:45:00,73.0,68.6,29.80,SSE,155,6.3,6.3,86,0.00,,SKC,0.00,VWS V13.01,2013-04-18 12:45:00,
2013-04-18 07:46:00,73.2,68.8,29.80,SSE,165,7.6,8.7,86,0.00,,SKC,0.00,VWS V13.01,2013-04-18 12:46:00,
2013-04-18 07:47:00,73.2,68.8,29.80,ESE,116,5.8,10.1,86,0.00,,SKC,0.00,VWS V13.01,2013-04-18 12:47:00,
2013-04-18 07:48:00,73.2,68.8,29.80,SSE,150,6.7,9.6,86,0.00,,SKC,0.00,VWS V13.01,2013-04-18 12:48:00,
2013-04-18 07:49:00,73.2,68.8,29.80,SSE,168,5.8,6.7,86,0.00,,SKC,0.00,VWS V13.01,2013-04-18 12:49:00,
2013-04-18 07:50:00,73.2,68.8,29.80,South,173,6.3,6.3,86,0.00,,SKC,0.00,VWS V13.01,2013-04-18 12:50:00,
2013-04-18 07:51:00,73.2,68.8,29.80,South,170,8.7,8.7,86,0.00,,SKC,0.00,VWS V13.01,2013-04-18 12:51:00,
2013-04-18 07:52:00,73.4,69.0,29.80,South,180,8.3,8.7,86,0.00,,SKC,0.00,VWS V13.01,2013-04-18 12:52:00,
2013-04-18 07:53:00,73.4,69.0,29.80,SSE,160,7.6,10.1,86,0.00,,SKC,0.00,VWS V13.01,2013-04-18 12:53:00,
2013-04-18 07:54:00,73.4,68.6,29.80,South,184,3.6,11.0,85,0.00,,SKC,0.00,VWS V13.01,2013-04-18 12:54:00,
2013-04-18 07:55:00,73.4,69.0,29.80,SSE,156,10.1,10.1,86,0.00,,SKC,0.00,VWS V13.01,2013-04-18 12:55:00,
2013-04-18 07:56:00,73.4,68.6,29.80,SE,124,7.6,10.1,85,0.00,,SKC,0.00,VWS V13.01,2013-04-18 12:56:00,
2013-04-18 07:57:00,73.4,68.6,29.80,SSW,199,5.4,7.6,85,0.00,,SKC,0.00,VWS V13.01,2013-04-18 12:57:00,
2013-04-18 07:58:00,73.4,68.6,29.80,SSE,165,6.3,6.3,85,0.00,,SKC,0.00,VWS V13.01,2013-04-18 12:58:00,
2013-04-18 07:59:00,73.4,68.6,29.80,South,185,5.8,7.6,85,0.00,,SKC,0.00,VWS V13.01,2013-04-18 12:59:00,
2013-04-18 08:00:00,73.4,68.3,29.80,ESE,123,5.8,11.0,84,0.00,,SKC,0.00,VWS V13.01,2013-04-18 13:00:00,
2013-04-18 08:01:00,73.4,68.6,29.80,SSE,159,7.2,8.7,85,0.00,,SKC,0.00,VWS V13.01,2013-04-18 13:01:00,
2013-04-18 08:02:00,73.6,68.8,29.80,SSE,155,5.8,9.6,85,0.00,,SKC,0.00,VWS V13.01,2013-04-18 13:02:00,
2013-04-18 08:03:00,73.6,68.8,29.80,South,189,7.6,8.3,85,0.00,,SKC,0.00,VWS V13.01,2013-04-18 13:03:00,
2013-04-18 08:04:00,73.6,68.8,29.80,SSE,166,5.4,8.1,85,0.00,,SKC,0.00,VWS V13.01,2013-04-18 13:04:00,
2013-04-18 08:05:00,73.6,68.8,29.80,SSE,158,5.4,5.4,85,0.00,,SKC,0.00,VWS V13.01,2013-04-18 13:05:00,
2013-04-18 08:06:00,73.6,68.8,29.80,SE,145,5.8,11.0,85,0.00,,SKC,0.00,VWS V13.01,2013-04-18 13:06:00,
2013-04-18 08:07:00,73.8,69.0,29.80,SE,143,6.3,8.7,85,0.00,,SKC,0.00,VWS V13.01,2013-04-18 13:07:00,
2013-04-18 08:08:00,73.8,68.6,29.80,SSW,201,5.8,7.6,84,0.00,,SKC,0.00,VWS V13.01,2013-04-18 13:08:00,
2013-04-18 08:09:00,73.9,69.2,29.80,SSE,162,8.3,12.8,85,0.00,,SKC,0.00,VWS V13.01,2013-04-18 13:09:00,
2013-04-18 08:10:00,74.1,69.3,29.80,SSE,163,8.7,8.7,85,0.00,,SKC,0.00,VWS V13.01,2013-04-18 13:10:00,
2013-04-18 08:11:00,74.1,69.0,29.80,South,182,9.6,9.6,84,0.00,,SKC,0.00,VWS V13.01,2013-04-18 13:11:00,
2013-04-18 08:12:00,74.3,69.2,29.80,ESE,112,4.0,10.5,84,0.00,,SKC,0.00,VWS V13.01,2013-04-18 13:12:00,
2013-04-18 08:13:00,74.5,69.3,29.80,South,183,7.6,7.6,84,0.00,,SKC,0.00,VWS V13.01,2013-04-18 13:13:00,
2013-04-18 08:14:00,74.7,69.9,29.80,South,178,5.8,8.7,85,0.00,,SKC,0.00,VWS V13.01,2013-04-18 13:14:00,
2013-04-18 08:15:00,75.0,69.9,29.80,ESE,111,5.4,10.5,84,0.00,,SKC,0.00,VWS V13.01,2013-04-18 13:15:00,
2013-04-18 08:16:00,75.0,68.8,29.80,South,171,8.1,8.1,81,0.00,,SKC,0.00,VWS V13.01,2013-04-18 13:16:00,
2013-04-18 08:17:00,75.2,68.6,29.80,SSE,165,5.8,8.1,80,0.00,,SKC,0.00,VWS V13.01,2013-04-18 13:17:00,
2013-04-18 08:18:00,75.4,68.1,29.80,SSE,154,5.8,8.3,78,0.00,,SKC,0.00,VWS V13.01,2013-04-18 13:18:00,
2013-04-18 08:19:00,75.6,68.2,29.80,South,187,5.8,7.6,78,0.00,,SKC,0.00,VWS V13.01,2013-04-18 13:19:00,
2013-04-18 08:20:00,75.6,68.2,29.80,South,180,8.3,10.1,78,0.00,,SKC,0.00,VWS V13.01,2013-04-18 13:20:00,
2013-04-18 08:21:00,75.6,68.2,29.80,South,186,4.9,8.3,78,0.00,,SKC,0.00,VWS V13.01,2013-04-18 13:21:00,
2013-04-18 08:22:00,75.7,68.4,29.80,SSW,200,7.2,7.6,78,0.00,,SKC,0.00,VWS V13.01,2013-04-18 13:22:00,
2013-04-18 08:23:00,75.7,68.4,29.80,South,170,7.6,8.3,78,0.00,,SKC,0.00,VWS V13.01,2013-04-18 13:23:00,
2013-04-18 08:24:00,75.7,68.0,29.80,South,180,8.7,8.7,77,0.00,,SKC,0.00,VWS V13.01,2013-04-18 13:24:00,
2013-04-18 08:25:00,75.9,68.2,29.80,ESE,123,5.4,8.7,77,0.00,,SKC,0.00,VWS V13.01,2013-04-18 13:25:00,
2013-04-18 08:26:00,75.7,67.6,29.80,ESE,123,6.3,8.7,76,0.00,,SKC,0.00,VWS V13.01,2013-04-18 13:26:00,
2013-04-18 08:27:00,75.7,67.6,29.80,SSW,201,8.7,8.7,76,0.00,,SKC,0.00,VWS V13.01,2013-04-18 13:27:00,
2013-04-18 08:28:00,75.7,67.6,29.80,SE,132,7.6,10.1,76,0.00,,SKC,0.00,VWS V13.01,2013-04-18 13:28:00,
2013-04-18 08:29:00,75.6,67.5,29.80,SSW,193,6.3,8.7,76,0.00,,SKC,0.00,VWS V13.01,2013-04-18 13:29:00,
2013-04-18 08:30:00,75.6,67.8,29.80,South,190,5.8,8.7,77,0.00,,SKC,0.00,VWS V13.01,2013-04-18 13:30:00,
2013-04-18 08:31:00,75.6,67.8,29.80,SSE,158,5.4,5.8,77,0.00,,SKC,0.00,VWS V13.01,2013-04-18 13:31:00,
2013-04-18 08:32:00,75.6,67.8,29.80,South,188,6.3,10.1,77,0.00,,SKC,0.00,VWS V13.01,2013-04-18 13:32:00,
2013-04-18 08:33:00,75.6,67.8,29.80,South,169,8.1,8.1,77,0.00,,SKC,0.00,VWS V13.01,2013-04-18 13:33:00,
2013-04-18 08:34:00,75.6,68.2,29.80,South,175,6.3,8.1,78,0.00,,SKC,0.00,VWS V13.01,2013-04-18 13:34:00,
2013-04-18 08:35:00,75.6,68.2,29.80,SE,138,2.7,8.1,78,0.00,,SKC,0.00,VWS V13.01,2013-04-18 13:35:00,
2013-04-18 08:36:00,75.6,68.6,29.80,South,176,3.1,5.4,79,0.00,,SKC,0.00,VWS V13.01,2013-04-18 13:36:00,
2013-04-18 08:37:00,75.6,67.8,29.80,SE,142,5.4,7.6,77,0.00,,SKC,0.00,VWS V13.01,2013-04-18 13:37:00,
2013-04-18 08:38:00,75.7,68.0,29.80,South,181,11.0,11.0,77,0.00,,SKC,0.00,VWS V13.01,2013-04-18 13:38:00,
2013-04-18 08:39:00,75.7,68.4,29.80,South,184,7.6,11.0,78,0.00,,SKC,0.00,VWS V13.01,2013-04-18 13:39:00,
2013-04-18 08:40:00,75.9,68.6,29.80,South,183,4.0,7.6,78,0.00,,SKC,0.00,VWS V13.01,2013-04-18 13:40:00,
2013-04-18 08:41:00,75.9,68.6,29.80,South,172,3.1,6.3,78,0.00,,SKC,0.00,VWS V13.01,2013-04-18 13:41:00,
2013-04-18 08:42:00,76.3,68.9,29.80,ESE,118,4.0,8.7,78,0.00,,SKC,0.00,VWS V13.01,2013-04-18 13:42:00,
2013-04-18 08:43:00,76.5,68.7,29.80,South,171,7.6,7.6,77,0.00,,SKC,0.00,VWS V13.01,2013-04-18 13:43:00,
2013-04-18 08:44:00,76.5,68.7,29.80,SSW,207,6.3,7.6,77,0.00,,SKC,0.00,VWS V13.01,2013-04-18 13:44:00,
2013-04-18 08:45:00,76.6,68.9,29.80,SSE,165,6.3,8.7,77,0.00,,SKC,0.00,VWS V13.01,2013-04-18 13:45:00,
2013-04-18 08:46:00,76.8,68.7,29.80,South,183,8.1,8.1,76,0.00,,SKC,0.00,VWS V13.01,2013-04-18 13:46:00,
2013-04-18 08:47:00,77.0,68.5,29.80,South,180,5.8,8.1,75,0.00,,SKC,0.00,VWS V13.01,2013-04-18 13:47:00,
2013-04-18 08:48:00,77.2,69.0,29.80,SE,141,10.5,10.5,76,0.00,,SKC,0.00,VWS V13.01,2013-04-18 13:48:00,
2013-04-18 08:49:00,77.2,69.0,29.80,South,186,5.4,10.5,76,0.00,,SKC,0.00,VWS V13.01,2013-04-18 13:49:00,
2013-04-18 08:50:00,77.5,69.0,29.80,SSE,150,8.7,10.5,75,0.00,,SKC,0.00,VWS V13.01,2013-04-18 13:50:00,
2013-04-18 08:51:00,77.5,69.0,29.80,SE,138,6.7,8.7,75,0.00,,SKC,0.00,VWS V13.01,2013-04-18 13:51:00,
2013-04-18 08:52:00,77.7,68.8,29.80,ESE,103,8.3,8.3,74,0.00,,SKC,0.00,VWS V13.01,2013-04-18 13:52:00,
2013-04-18 08:53:00,77.7,68.4,29.80,South,177,7.6,9.2,73,0.00,,SKC,0.00,VWS V13.01,2013-04-18 13:53:00,
2013-04-18 08:54:00,77.9,68.2,29.80,South,182,6.3,8.7,72,0.00,,SKC,0.00,VWS V13.01,2013-04-18 13:54:00,
2013-04-18 08:55:00,77.9,68.2,29.80,South,185,8.1,12.8,72,0.00,,SKC,0.00,VWS V13.01,2013-04-18 13:55:00,
2013-04-18 08:56:00,77.9,68.9,29.80,South,180,8.3,8.7,74,0.00,,SKC,0.00,VWS V13.01,2013-04-18 13:56:00,
2013-04-18 08:57:00,78.1,69.1,29.80,SSE,153,4.0,8.3,74,0.00,,SKC,0.00,VWS V13.01,2013-04-18 13:57:00,
2013-04-18 08:58:00,78.3,68.5,29.80,ESE,114,4.5,5.8,72,0.00,,SKC,0.00,VWS V13.01,2013-04-18 13:58:00,
2013-04-18 08:59:00,78.3,68.1,29.80,South,174,8.1,9.2,71,0.00,,SKC,0.00,VWS V13.01,2013-04-18 13:59:00,
2013-04-18 09:00:00,78.3,69.3,29.80,SSE,168,6.3,10.1,74,0.00,,SKC,0.00,VWS V13.01,2013-04-18 14:00:00,
2013-04-18 09:01:00,78.3,68.9,29.80,SSE,156,6.3,6.3,73,0.00,,SKC,0.00,VWS V13.01,2013-04-18 14:01:00,
2013-04-18 09:02:00,78.4,69.5,29.80,SSW,192,8.1,8.3,74,0.00,,SKC,0.00,VWS V13.01,2013-04-18 14:02:00,
2013-04-18 09:03:00,78.4,68.7,29.80,SSE,148,5.8,9.6,72,0.00,,SKC,0.00,VWS V13.01,2013-04-18 14:03:00,
2013-04-18 09:04:00,78.8,69.4,29.80,SSE,156,6.3,7.6,73,0.00,,SKC,0.00,VWS V13.01,2013-04-18 14:04:00,
2013-04-18 09:05:00,78.8,69.4,29.80,SE,133,5.4,8.1,73,0.00,,SKC,0.00,VWS V13.01,2013-04-18 14:05:00,
2013-04-18 09:06:00,79.0,67.9,29.80,SSE,160,10.5,10.5,69,0.00,,SKC,0.00,VWS V13.01,2013-04-18 14:06:00,
2013-04-18 09:07:00,79.2,68.1,29.80,SSE,160,8.7,10.5,69,0.00,,SKC,0.00,VWS V13.01,2013-04-18 14:07:00,
2013-04-18 09:08:00,79.3,68.3,29.80,SSW,196,4.9,10.5,69,0.00,,SKC,0.00,VWS V13.01,2013-04-18 14:08:00,
2013-04-18 09:09:00,79.3,68.3,29.80,SSW,199,5.4,9.6,69,0.00,,SKC,0.00,VWS V13.01,2013-04-18 14:09:00,
2013-04-18 09:10:00,79.3,67.9,29.80,SE,139,5.4,12.8,68,0.00,,SKC,0.00,VWS V13.01,2013-04-18 14:10:00,
2013-04-18 09:11:00,79.3,67.9,29.80,SSE,150,5.8,6.3,68,0.00,,SKC,0.00,VWS V13.01,2013-04-18 14:11:00,
2013-04-18 09:12:00,79.2,67.7,29.80,South,183,8.1,8.1,68,0.00,,SKC,0.00,VWS V13.01,2013-04-18 14:12:00,
2013-04-18 09:13:00,79.2,67.7,29.80,SSE,168,8.3,8.7,68,0.00,,SKC,0.00,VWS V13.01,2013-04-18 14:13:00,
2013-04-18 09:14:00,79.2,68.1,29.80,South,177,5.8,8.3,69,0.00,,SKC,0.00,VWS V13.01,2013-04-18 14:14:00,
2013-04-18 09:15:00,79.0,67.9,29.80,South,174,7.6,7.6,69,0.00,,SKC,0.00,VWS V13.01,2013-04-18 14:15:00,
2013-04-18 09:16:00,79.0,68.4,29.80,SE,138,8.7,8.7,70,0.00,,SKC,0.00,VWS V13.01,2013-04-18 14:16:00,
2013-04-18 09:17:00,79.0,68.4,29.80,South,182,8.1,8.1,70,0.00,,SKC,0.00,VWS V13.01,2013-04-18 14:17:00,
2013-04-18 09:18:00,79.2,68.1,29.80,SSE,148,10.5,10.5,69,0.00,,SKC,0.00,VWS V13.01,2013-04-18 14:18:00,
2013-04-18 09:19:00,79.0,67.9,29.80,SSE,166,5.8,10.5,69,0.00,,SKC,0.00,VWS V13.01,2013-04-18 14:19:00,
2013-04-18 09:20:00,79.0,67.9,29.80,SSE,154,6.3,9.2,69,0.00,,SKC,0.00,VWS V13.01,2013-04-18 14:20:00,
2013-04-18 09:21:00,79.0,68.4,29.80,SE,129,8.3,13.2,70,0.00,,SKC,0.00,VWS V13.01,2013-04-18 14:21:00,
2013-04-18 09:22:00,79.2,68.9,29.80,South,191,4.0,8.3,71,0.00,,SKC,0.00,VWS V13.01,2013-04-18 14:22:00,
2013-04-18 09:23:00,79.2,69.0,29.80,SSE,165,5.4,6.7,71,0.00,,SKC,0.00,VWS V13.01,2013-04-18 14:23:00,
2013-04-18 09:24:00,79.3,69.1,29.80,SE,128,9.6,9.6,71,0.00,,SKC,0.00,VWS V13.01,2013-04-18 14:24:00,
2013-04-18 09:25:00,79.3,68.7,29.80,South,169,8.3,9.6,70,0.00,,SKC,0.00,VWS V13.01,2013-04-18 14:25:00,
2013-04-18 09:26:00,79.5,68.9,29.80,ESE,113,8.3,8.3,70,0.00,,SKC,0.00,VWS V13.01,2013-04-18 14:26:00,
2013-04-18 09:27:00,79.7,69.1,29.80,SSE,158,6.3,9.6,70,0.00,,SKC,0.00,VWS V13.01,2013-04-18 14:27:00,
2013-04-18 09:28:00,79.7,69.1,29.80,South,170,12.3,12.3,70,0.00,,SKC,0.00,VWS V13.01,2013-04-18 14:28:00,
2013-04-18 09:29:00,79.9,68.8,29.80,SE,138,8.7,12.3,69,0.00,,SKC,0.00,VWS V13.01,2013-04-18 14:29:00,
2013-04-18 09:30:00,80.1,69.0,29.80,South,175,5.8,8.7,69,0.00,,SKC,0.00,VWS V13.01,2013-04-18 14:30:00,
2013-04-18 09:31:00,80.2,69.2,29.80,ESE,118,5.8,8.1,69,0.00,,SKC,0.00,VWS V13.01,2013-04-18 14:31:00,
2013-04-18 09:32:00,80.4,69.3,29.80,SE,139,6.7,9.6,69,0.00,,SKC,0.00,VWS V13.01,2013-04-18 14:32:00,
2013-04-18 09:33:00,80.2,68.3,29.80,SSE,161,10.5,10.5,67,0.00,,SKC,0.00,VWS V13.01,2013-04-18 14:33:00,
2013-04-18 09:34:00,80.4,68.5,29.80,SSE,158,5.4,11.0,67,0.00,,SKC,0.00,VWS V13.01,2013-04-18 14:34:00,
2013-04-18 09:35:00,80.2,67.9,29.80,SSE,163,6.3,8.1,66,0.00,,SKC,0.00,VWS V13.01,2013-04-18 14:35:00,
2013-04-18 09:36:00,80.4,68.5,29.80,South,179,8.7,14.1,67,0.00,,SKC,0.00,VWS V13.01,2013-04-18 14:36:00,
2013-04-18 09:37:00,80.4,68.5,29.80,ESE,105,5.4,8.7,67,0.00,,SKC,0.00,VWS V13.01,2013-04-18 14:37:00,
2013-04-18 09:38:00,80.4,68.5,29.80,SE,134,8.3,11.0,67,0.00,,SKC,0.00,VWS V13.01,2013-04-18 14:38:00,
2013-04-18 09:39:00,80.4,68.5,29.80,ESE,122,6.7,11.0,67,0.00,,SKC,0.00,VWS V13.01,2013-04-18 14:39:00,
2013-04-18 09:40:00,80.2,68.3,29.80,SSE,158,8.3,8.7,67,0.00,,SKC,0.00,VWS V13.01,2013-04-18 14:40:00,
2013-04-18 09:41:00,80.1,68.1,29.80,SE,140,6.3,8.3,67,0.00,,SKC,0.00,VWS V13.01,2013-04-18 14:41:00,
2013-04-18 09:42:00,80.1,68.6,29.80,SE,142,7.6,7.6,68,0.00,,SKC,0.00,VWS V13.01,2013-04-18 14:42:00,
2013-04-18 09:43:00,79.9,67.9,29.80,SSE,164,6.3,8.7,67,0.00,,SKC,0.00,VWS V13.01,2013-04-18 14:43:00,
2013-04-18 09:44:00,79.9,67.9,29.80,South,179,11.0,11.0,67,0.00,,SKC,0.00,VWS V13.01,2013-04-18 14:44:00,
2013-04-18 09:45:00,79.9,68.8,29.80,SSE,167,10.1,11.0,69,0.00,,SKC,0.00,VWS V13.01,2013-04-18 14:45:00,
2013-04-18 09:46:00,79.7,68.2,29.80,South,180,5.4,10.1,68,0.00,,SKC,0.00,VWS V13.01,2013-04-18 14:46:00,
2013-04-18 09:47:00,79.7,68.6,29.80,South,175,6.3,13.2,69,0.00,,SKC,0.00,VWS V13.01,2013-04-18 14:47:00,
2013-04-18 09:48:00,79.7,68.6,29.80,SSW,193,4.0,5.8,69,0.00,,SKC,0.00,VWS V13.01,2013-04-18 14:48:00,
2013-04-18 09:49:00,79.7,68.6,29.80,SE,138,7.6,7.6,69,0.00,,SKC,0.00,VWS V13.01,2013-04-18 14:49:00,
2013-04-18 09:50:00,79.7,68.6,29.80,South,189,12.3,12.3,69,0.00,,SKC,0.00,VWS V13.01,2013-04-18 14:50:00,
2013-04-18 09:51:00,79.7,68.6,29.80,SE,145,5.4,12.3,69,0.00,,SKC,0.00,VWS V13.01,2013-04-18 14:51:00,
2013-04-18 09:52:00,79.5,68.5,29.80,SSE,161,8.1,10.5,69,0.00,,SKC,0.00,VWS V13.01,2013-04-18 14:52:00,
2013-04-18 09:53:00,79.5,68.5,29.80,SSE,166,5.8,8.3,69,0.00,,SKC,0.00,VWS V13.01,2013-04-18 14:53:00,
2013-04-18 09:54:00,79.5,68.5,29.80,ESE,110,5.8,8.3,69,0.00,,SKC,0.00,VWS V13.01,2013-04-18 14:54:00,
2013-04-18 09:55:00,79.5,68.5,29.80,South,181,4.0,5.8,69,0.00,,SKC,0.00,VWS V13.01,2013-04-18 14:55:00,
2013-04-18 09:56:00,79.5,69.3,29.80,SE,145,12.8,13.2,71,0.00,,SKC,0.00,VWS V13.01,2013-04-18 14:56:00,
2013-04-18 09:57:00,79.5,68.9,29.80,South,181,8.3,12.8,70,0.00,,SKC,0.00,VWS V13.01,2013-04-18 14:57:00,
2013-04-18 09:58:00,79.5,68.9,29.80,South,171,7.6,10.1,70,0.00,,SKC,0.00,VWS V13.01,2013-04-18 14:58:00,
2013-04-18 09:59:00,79.5,68.9,29.80,SSE,156,8.1,8.1,70,0.00,,SKC,0.00,VWS V13.01,2013-04-18 14:59:00,
2013-04-18 10:00:00,79.5,68.9,29.80,South,171,6.3,10.1,70,0.00,,SKC,0.00,VWS V13.01,2013-04-18 15:00:00,
2013-04-18 10:01:00,79.3,68.7,29.80,South,174,8.7,10.5,70,0.00,,SKC,0.00,VWS V13.01,2013-04-18 15:01:00,
2013-04-18 10:02:00,79.5,68.9,29.80,SSW,197,8.7,10.5,70,0.00,,SKC,0.00,VWS V13.01,2013-04-18 15:02:00,
2013-04-18 10:03:00,79.5,68.9,29.80,SSW,211,10.1,10.1,70,0.00,,SKC,0.00,VWS V13.01,2013-04-18 15:03:00,
2013-04-18 10:04:00,79.7,69.1,29.80,SSE,165,3.6,10.1,70,0.00,,SKC,0.00,VWS V13.01,2013-04-18 15:04:00,
2013-04-18 10:05:00,79.9,69.6,29.80,South,190,10.1,12.3,71,0.00,,SKC,0.00,VWS V13.01,2013-04-18 15:05:00,
2013-04-18 10:06:00,80.1,69.8,29.80,South,171,8.1,10.1,71,0.00,,SKC,0.00,VWS V13.01,2013-04-18 15:06:00,
2013-04-18 10:07:00,80.2,69.2,29.80,SSE,157,10.1,10.1,69,0.00,,SKC,0.00,VWS V13.01,2013-04-18 15:07:00,
2013-04-18 10:08:00,80.4,69.3,29.80,SSE,167,10.1,10.1,69,0.00,,SKC,0.00,VWS V13.01,2013-04-18 15:08:00,
2013-04-18 10:09:00,80.4,68.9,29.80,SSE,163,10.5,15.0,68,0.00,,SKC,0.00,VWS V13.01,2013-04-18 15:09:00,
2013-04-18 10:10:00,80.6,69.1,29.80,SSE,162,6.3,10.5,68,0.00,,SKC,0.00,VWS V13.01,2013-04-18 15:10:00,
2013-04-18 10:11:00,80.4,68.9,29.80,South,184,5.8,8.3,68,0.00,,SKC,0.00,VWS V13.01,2013-04-18 15:11:00,
2013-04-18 10:12:00,80.2,68.3,29.80,SE,130,3.6,8.7,67,0.00,,SKC,0.00,VWS V13.01,2013-04-18 15:12:00,
2013-04-18 10:13:00,80.2,68.7,29.80,South,181,6.3,8.3,68,0.00,,SKC,0.00,VWS V13.01,2013-04-18 15:13:00,
2013-04-18 10:14:00,80.1,68.6,29.80,South,170,8.1,8.1,68,0.00,,SKC,0.00,VWS V13.01,2013-04-18 15:14:00,
2013-04-18 10:15:00,79.9,68.4,29.80,ESE,103,8.7,8.7,68,0.00,,SKC,0.00,VWS V13.01,2013-04-18 15:15:00,
2013-04-18 10:16:00,79.9,68.8,29.80,SE,135,5.8,8.7,69,0.00,,SKC,0.00,VWS V13.01,2013-04-18 15:16:00,
2013-04-18 10:17:00,79.5,68.5,29.80,SSE,157,8.7,9.6,69,0.00,,SKC,0.00,VWS V13.01,2013-04-18 15:17:00,
2013-04-18 10:18:00,79.3,68.7,29.80,ESE,123,8.3,9.2,70,0.00,,SKC,0.00,VWS V13.01,2013-04-18 15:18:00,
2013-04-18 10:19:00,79.2,68.5,29.80,South,180,7.6,10.1,70,0.00,,SKC,0.00,VWS V13.01,2013-04-18 15:19:00,
2013-04-18 10:20:00,78.8,68.6,29.80,SE,137,8.3,8.3,71,0.00,,SKC,0.00,VWS V13.01,2013-04-18 15:20:00,
2013-04-18 10:21:00,78.8,69.0,29.80,South,175,4.9,8.3,72,0.00,,SKC,0.00,VWS V13.01,2013-04-18 15:21:00,
2013-04-18 10:22:00,78.8,69.4,29.80,South,185,4.0,8.3,73,0.00,,SKC,0.00,VWS V13.01,2013-04-18 15:22:00,
2013-04-18 10:23:00,78.8,69.4,29.80,SSE,157,7.2,7.2,73,0.00,,SKC,0.00,VWS V13.01,2013-04-18 15:23:00,
2013-04-18 10:24:00,78.6,69.2,29.80,SSE,160,6.3,8.3,73,0.00,,SKC,0.00,VWS V13.01,2013-04-18 15:24:00,
2013-04-18 10:25:00,78.6,69.6,29.80,South,186,4.0,6.3,74,0.00,,SKC,0.00,VWS V13.01,2013-04-18 15:25:00,
2013-04-18 10:26:00,78.8,69.8,29.80,South,179,5.8,6.3,74,0.00,,SKC,0.00,VWS V13.01,2013-04-18 15:26:00,
2013-04-18 10:27:00,79.0,70.0,29.80,South,185,10.5,10.5,74,0.00,,SKC,0.00,VWS V13.01,2013-04-18 15:27:00,
2013-04-18 10:28:00,79.3,70.3,29.80,South,175,5.8,10.5,74,0.00,,SKC,0.00,VWS V13.01,2013-04-18 15:28:00,
2013-04-18 10:29:00,79.3,70.3,29.80,SW,215,8.1,8.1,74,0.00,,SKC,0.00,VWS V13.01,2013-04-18 15:29:00,
2013-04-18 10:30:00,79.7,70.7,29.80,SSW,193,11.0,13.2,74,0.00,,SKC,0.00,VWS V13.01,2013-04-18 15:30:00,
2013-04-18 10:31:00,80.1,70.2,29.80,South,174,6.3,11.4,72,0.00,,SKC,0.00,VWS V13.01,2013-04-18 15:31:00,
2013-04-18 10:32:00,80.1,69.8,29.80,South,172,8.3,8.3,71,0.00,,SKC,0.00,VWS V13.01,2013-04-18 15:32:00,
2013-04-18 10:33:00,80.2,69.6,29.80,South,184,6.3,8.7,70,0.00,,SKC,0.00,VWS V13.01,2013-04-18 15:33:00,
2013-04-18 10:34:00,80.2,69.6,29.80,SSE,167,6.3,8.1,70,0.00,,SKC,0.00,VWS V13.01,2013-04-18 15:34:00,
2013-04-18 10:35:00,80.4,69.3,29.80,South,170,11.0,11.0,69,0.00,,SKC,0.00,VWS V13.01,2013-04-18 15:35:00,
2013-04-18 10:36:00,80.2,69.2,29.80,SW,215,4.0,11.0,69,0.00,,SKC,0.00,VWS V13.01,2013-04-18 15:36:00,
2013-04-18 10:37:00,80.2,69.2,29.80,South,172,5.8,7.6,69,0.00,,SKC,0.00,VWS V13.01,2013-04-18 15:37:00,
2013-04-18 10:38:00,80.1,68.6,29.80,SSE,153,6.3,8.7,68,0.00,,SKC,0.00,VWS V13.01,2013-04-18 15:38:00,
2013-04-18 10:39:00,79.9,68.4,29.80,ESE,116,7.6,10.5,68,0.00,,SKC,0.00,VWS V13.01,2013-04-18 15:39:00,
2013-04-18 10:40:00,79.9,68.8,29.80,SE,128,5.8,8.1,69,0.00,,SKC,0.00,VWS V13.01,2013-04-18 15:40:00,
2013-04-18 10:41:00,79.5,68.5,29.80,SE,145,6.3,8.1,69,0.00,,SKC,0.00,VWS V13.01,2013-04-18 15:41:00,
2013-04-18 10:42:00,79.3,69.1,29.80,ESE,120,6.3,7.6,71,0.00,,SKC,0.00,VWS V13.01,2013-04-18 15:42:00,
2013-04-18 10:43:00,79.3,69.1,29.80,SSE,152,7.6,8.7,71,0.00,,SKC,0.00,VWS V13.01,2013-04-18 15:43:00,
2013-04-18 10:44:00,79.0,68.8,29.80,SE,145,12.8,12.8,71,0.00,,SKC,0.00,VWS V13.01,2013-04-18 15:44:00,
2013-04-18 10:45:00,79.0,68.8,29.80,South,187,8.7,12.8,71,0.00,,SKC,0.00,VWS V13.01,2013-04-18 15:45:00,
2013-04-18 10:46:00,78.8,69.4,29.80,SSE,159,8.1,8.7,73,0.00,,SKC,0.00,VWS V13.01,2013-04-18 15:46:00,
2013-04-18 10:47:00,78.6,69.2,29.80,South,188,7.6,11.0,73,0.00,,SKC,0.00,VWS V13.01,2013-04-18 15:47:00,
2013-04-18 10:48:00,78.8,69.4,29.80,South,173,7.6,8.7,73,0.00,,SKC,0.00,VWS V13.01,2013-04-18 15:48:00,
2013-04-18 10:49:00,78.8,69.8,29.80,SSW,199,4.0,7.6,74,0.00,,SKC,0.00,VWS V13.01,2013-04-18 15:49:00,
2013-04-18 10:50:00,78.8,69.8,29.80,South,176,6.7,8.1,74,0.00,,SKC,0.00,VWS V13.01,2013-04-18 15:50:00,
2013-04-18 10:51:00,78.8,69.8,29.80,South,178,8.1,10.1,74,0.00,,SKC,0.00,VWS V13.01,2013-04-18 15:51:00,
2013-04-18 10:52:00,79.0,70.0,29.80,SSE,162,5.8,8.1,74,0.00,,SKC,0.00,VWS V13.01,2013-04-18 15:52:00,
2013-04-18 10:53:00,79.0,70.0,29.80,South,172,4.0,8.3,74,0.00,,SKC,0.00,VWS V13.01,2013-04-18 15:53:00,
2013-04-18 10:54:00,79.0,70.0,29.80,ESE,118,6.3,6.3,74,0.00,,SKC,0.00,VWS V13.01,2013-04-18 15:54:00,
2013-04-18 10:55:00,79.2,70.2,29.80,South,170,7.6,7.6,74,0.00,,SKC,0.00,VWS V13.01,2013-04-18 15:55:00,
2013-04-18 10:56:00,79.2,70.2,29.80,SSE,163,5.4,8.3,74,0.00,,SKC,0.00,VWS V13.01,2013-04-18 15:56:00,
2013-04-18 10:57:00,79.3,70.3,29.80,SSW,193,5.8,5.8,74,0.00,,SKC,0.00,VWS V13.01,2013-04-18 15:57:00,
2013-04-18 10:58:00,79.3,70.3,29.80,South,182,4.0,8.3,74,0.00,,SKC,0.00,VWS V13.01,2013-04-18 15:58:00,
2013-04-18 10:59:00,79.7,70.3,29.80,SSE,162,7.6,8.1,73,0.00,,SKC,0.00,VWS V13.01,2013-04-18 15:59:00,
2013-04-18 11:00:00,79.9,70.1,29.80,South,187,8.1,11.0,72,0.00,,SKC,0.00,VWS V13.01,2013-04-18 16:00:00,
2013-04-18 11:01:00,80.1,70.6,29.80,SE,133,3.1,8.1,73,0.00,,SKC,0.00,VWS V13.01,2013-04-18 16:01:00,
2013-04-18 11:02:00,80.2,69.6,29.80,South,175,7.6,7.6,70,0.00,,SKC,0.00,VWS V13.01,2013-04-18 16:02:00,
2013-04-18 11:03:00,80.4,69.8,29.80,SE,144,4.9,7.6,70,0.00,,SKC,0.00,VWS V13.01,2013-04-18 16:03:00,
2013-04-18 11:04:00,80.4,69.3,29.80,SE,132,8.3,8.3,69,0.00,,SKC,0.00,VWS V13.01,2013-04-18 16:04:00,
2013-04-18 11:05:00,80.6,69.5,29.80,South,170,6.3,8.3,69,0.00,,SKC,0.00,VWS V13.01,2013-04-18 16:05:00,
2013-04-18 11:06:00,80.8,69.7,29.80,South,181,8.7,8.7,69,0.00,,SKC,0.00,VWS V13.01,2013-04-18 16:06:00,
2013-04-18 11:07:00,81.0,69.4,29.80,SSE,149,5.4,8.7,68,0.00,,SKC,0.00,VWS V13.01,2013-04-18 16:07:00,
2013-04-18 11:08:00,81.1,70.0,29.80,SSW,208,8.1,8.1,69,0.00,,SKC,0.00,VWS V13.01,2013-04-18 16:08:00,
2013-04-18 11:09:00,81.5,71.6,29.80,SE,129,5.4,8.3,72,0.00,,SKC,0.00,VWS V13.01,2013-04-18 16:09:00,
2013-04-18 11:10:00,81.7,70.1,29.80,SE,139,5.4,8.1,68,0.00,,SKC,0.00,VWS V13.01,2013-04-18 16:10:00,
2013-04-18 11:11:00,81.9,70.7,29.80,SE,146,8.1,8.1,69,0.00,,SKC,0.00,VWS V13.01,2013-04-18 16:11:00,
2013-04-18 11:12:00,81.9,70.7,29.80,South,185,6.3,10.1,69,0.00,,SKC,0.00,VWS V13.01,2013-04-18 16:12:00,
2013-04-18 11:13:00,82.2,70.2,29.80,South,169,5.4,8.3,67,0.00,,SKC,0.00,VWS V13.01,2013-04-18 16:13:00,
2013-04-18 11:14:00,82.2,69.7,29.80,South,176,11.0,11.0,66,0.00,,SKC,0.00,VWS V13.01,2013-04-18 16:14:00,
2013-04-18 11:15:00,82.4,70.3,29.80,East,85,5.8,11.0,67,0.00,,SKC,0.00,VWS V13.01,2013-04-18 16:15:00,
2013-04-18 11:16:00,82.4,69.9,29.80,SE,133,4.0,10.5,66,0.00,,SKC,0.00,VWS V13.01,2013-04-18 16:16:00,
2013-04-18 11:17:00,82.4,69.5,29.80,South,185,8.1,8.1,65,0.00,,SKC,0.00,VWS V13.01,2013-04-18 16:17:00,
2013-04-18 11:18:00,82.6,70.5,29.80,NE,53,3.6,8.7,67,0.00,,SKC,0.00,VWS V13.01,2013-04-18 16:18:00,
2013-04-18 11:19:00,82.8,70.7,29.80,SSW,196,5.8,5.8,67,0.00,,SKC,0.00,VWS V13.01,2013-04-18 16:19:00,
2013-04-18 11:20:00,82.9,70.9,29.80,South,180,8.3,13.2,67,0.00,,SKC,0.00,VWS V13.01,2013-04-18 16:20:00,
2013-04-18 11:21:00,83.1,70.6,29.80,South,175,8.1,11.0,66,0.00,,SKC,0.00,VWS V13.01,2013-04-18 16:21:00,
2013-04-18 11:22:00,83.1,71.0,29.80,SE,137,5.4,8.3,67,0.00,,SKC,0.00,VWS V13.01,2013-04-18 16:22:00,
2013-04-18 11:23:00,83.3,71.2,29.80,South,190,8.3,8.3,67,0.00,,SKC,0.00,VWS V13.01,2013-04-18 16:23:00,
2013-04-18 11:24:00,83.5,70.5,29.80,ESE,121,5.8,8.3,65,0.00,,SKC,0.00,VWS V13.01,2013-04-18 16:24:00,
2013-04-18 11:25:00,83.5,70.5,29.80,South,183,8.3,10.5,65,0.00,,SKC,0.00,VWS V13.01,2013-04-18 16:25:00,
2013-04-18 11:26:00,83.7,70.7,29.80,SE,131,6.3,9.6,65,0.00,,SKC,0.00,VWS V13.01,2013-04-18 16:26:00,
2013-04-18 11:27:00,83.8,70.8,29.80,SSW,197,4.0,4.0,65,0.00,,SKC,0.00,VWS V13.01,2013-04-18 16:27:00,
2013-04-18 11:28:00,83.8,70.8,29.80,ESE,105,7.6,7.6,65,0.00,,SKC,0.00,VWS V13.01,2013-04-18 16:28:00,
2013-04-18 11:29:00,83.8,70.8,29.80,SE,135,6.3,8.1,65,0.00,,SKC,0.00,VWS V13.01,2013-04-18 16:29:00,
2013-04-18 11:30:00,84.0,71.0,29.80,South,181,5.8,6.3,65,0.00,,SKC,0.00,VWS V13.01,2013-04-18 16:30:00,
2013-04-18 11:31:00,84.0,71.0,29.80,SE,135,7.6,8.3,65,0.00,,SKC,0.00,VWS V13.01,2013-04-18 16:31:00,
2013-04-18 11:32:00,84.0,71.0,29.80,ESE,112,5.8,7.6,65,0.00,,SKC,0.00,VWS V13.01,2013-04-18 16:32:00,
2013-04-18 11:33:00,84.0,71.0,29.80,SSE,147,8.1,12.8,65,0.00,,SKC,0.00,VWS V13.01,2013-04-18 16:33:00,
2013-04-18 11:34:00,83.7,70.2,29.80,South,182,9.6,9.6,64,0.00,,SKC,0.00,VWS V13.01,2013-04-18 16:34:00,
2013-04-18 11:35:00,83.5,70.0,29.80,SSE,155,8.1,9.6,64,0.00,,SKC,0.00,VWS V13.01,2013-04-18 16:35:00,
2013-04-18 11:36:00,83.5,70.5,29.80,SE,138,5.4,8.7,65,0.00,,SKC,0.00,VWS V13.01,2013-04-18 16:36:00,
2013-04-18 11:37:00,83.3,70.3,29.80,SSE,148,5.8,5.8,65,0.00,,SKC,0.00,VWS V13.01,2013-04-18 16:37:00,
2013-04-18 11:38:00,83.3,70.3,29.80,South,177,11.9,11.9,65,0.00,,SKC,0.00,VWS V13.01,2013-04-18 16:38:00,
2013-04-18 11:39:00,83.3,70.3,29.80,South,173,5.8,15.0,65,0.00,,SKC,0.00,VWS V13.01,2013-04-18 16:39:00,
2013-04-18 11:40:00,83.1,70.1,29.80,South,185,6.3,10.5,65,0.00,,SKC,0.00,VWS V13.01,2013-04-18 16:40:00,
2013-04-18 11:41:00,83.3,70.3,29.80,ESE,121,4.0,12.3,65,0.00,,SKC,0.00,VWS V13.01,2013-04-18 16:41:00,
2013-04-18 11:42:00,83.3,70.8,29.80,South,178,5.8,5.8,66,0.00,,SKC,0.00,VWS V13.01,2013-04-18 16:42:00,
2013-04-18 11:43:00,83.7,71.1,29.80,SSW,198,5.8,13.2,66,0.00,,SKC,0.00,VWS V13.01,2013-04-18 16:43:00,
2013-04-18 11:44:00,83.7,71.1,29.80,SSE,154,4.9,6.3,66,0.00,,SKC,0.00,VWS V13.01,2013-04-18 16:44:00,
2013-04-18 11:45:00,83.7,70.7,29.80,SSE,150,10.5,10.5,65,0.00,,SKC,0.00,VWS V13.01,2013-04-18 16:45:00,
2013-04-18 11:46:00,83.8,70.8,29.80,SSE,162,13.2,13.2,65,0.00,,SKC,0.00,VWS V13.01,2013-04-18 16:46:00,
2013-04-18 11:47:00,83.7,70.7,29.80,SSE,150,10.5,13.2,65,0.00,,SKC,0.00,VWS V13.01,2013-04-18 16:47:00,
2013-04-18 11:48:00,83.5,70.5,29.80,SSE,168,11.0,11.0,65,0.00,,SKC,0.00,VWS V13.01,2013-04-18 16:48:00,
2013-04-18 11:49:00,83.3,69.9,29.80,South,177,5.4,11.0,64,0.00,,SKC,0.00,VWS V13.01,2013-04-18 16:49:00,
2013-04-18 11:50:00,83.1,70.1,29.80,South,171,6.3,10.1,65,0.00,,SKC,0.00,VWS V13.01,2013-04-18 16:50:00,
2013-04-18 11:51:00,83.1,70.1,29.80,SE,144,5.4,7.6,65,0.00,,SKC,0.00,VWS V13.01,2013-04-18 16:51:00,
2013-04-18 11:52:00,82.9,70.0,29.80,SSE,155,5.4,6.3,65,0.00,,SKC,0.00,VWS V13.01,2013-04-18 16:52:00,
2013-04-18 11:53:00,82.8,69.8,29.80,South,172,4.9,5.4,65,0.00,,SKC,0.00,VWS V13.01,2013-04-18 16:53:00,
2013-04-18 11:54:00,82.6,69.6,29.80,SE,134,5.8,5.8,65,0.00,,SKC,0.00,VWS V13.01,2013-04-18 16:54:00,
2013-04-18 11:55:00,82.4,69.5,29.80,ESE,121,8.1,10.1,65,0.00,,SKC,0.00,VWS V13.01,2013-04-18 16:55:00,
2013-04-18 11:56:00,82.4,69.5,29.80,SE,134,5.4,8.1,65,0.00,,SKC,0.00,VWS V13.01,2013-04-18 16:56:00,
2013-04-18 11:57:00,82.2,69.7,29.80,SE,129,3.1,6.3,66,0.00,,SKC,0.00,VWS V13.01,2013-04-18 16:57:00,
2013-04-18 11:58:00,82.2,70.2,29.80,SE,144,4.9,7.6,67,0.00,,SKC,0.00,VWS V13.01,2013-04-18 16:58:00,
2013-04-18 11:59:00,82.2,70.2,29.80,East,94,4.0,6.3,67,0.00,,SKC,0.00,VWS V13.01,2013-04-18 16:59:00,
2013-04-18 12:00:00,82.0,70.0,29.80,South,172,3.1,5.8,67,0.00,,SKC,0.00,VWS V13.01,2013-04-18 17:00:00,
2013-04-18 12:01:00,82.0,70.0,29.80,SE,139,5.8,5.8,67,0.00,,SKC,0.00,VWS V13.01,2013-04-18 17:01:00,
2013-04-18 12:02:00,81.9,69.4,29.80,SSE,162,5.4,10.5,66,0.00,,SKC,0.00,VWS V13.01,2013-04-18 17:02:00,
2013-04-18 12:03:00,81.7,69.2,29.80,SSE,152,6.3,6.3,66,0.00,,SKC,0.00,VWS V13.01,2013-04-18 17:03:00,
2013-04-18 12:04:00,81.7,69.7,29.80,SE,131,5.8,8.1,67,0.00,,SKC,0.00,VWS V13.01,2013-04-18 17:04:00,
2013-04-18 12:05:00,81.7,70.1,29.80,South,172,7.6,10.5,68,0.00,,SKC,0.00,VWS V13.01,2013-04-18 17:05:00,
2013-04-18 12:06:00,81.7,70.5,29.80,ESE,120,8.1,8.1,69,0.00,,SKC,0.00,VWS V13.01,2013-04-18 17:06:00,
2013-04-18 12:07:00,81.5,69.9,29.80,SE,136,6.3,9.6,68,0.00,,SKC,0.00,VWS V13.01,2013-04-18 17:07:00,
2013-04-18 12:08:00,81.3,69.3,29.80,South,187,8.7,9.6,67,0.00,,SKC,0.00,VWS V13.01,2013-04-18 17:08:00,
2013-04-18 12:09:00,81.5,70.4,29.80,South,186,11.4,11.4,69,0.00,,SKC,0.00,VWS V13.01,2013-04-18 17:09:00,
2013-04-18 12:10:00,81.5,71.2,29.80,SSE,168,12.8,12.8,71,0.00,,SKC,0.00,VWS V13.01,2013-04-18 17:10:00,
2013-04-18 12:11:00,81.5,70.4,29.80,South,176,7.6,12.8,69,0.00,,SKC,0.00,VWS V13.01,2013-04-18 17:11:00,
2013-04-18 12:12:00,81.5,69.9,29.80,South,180,3.6,7.6,68,0.00,,SKC,0.00,VWS V13.01,2013-04-18 17:12:00,
2013-04-18 12:13:00,81.9,70.7,29.80,South,191,5.8,11.4,69,0.00,,SKC,0.00,VWS V13.01,2013-04-18 17:13:00,
2013-04-18 12:14:00,82.4,71.2,29.80,South,179,8.3,10.5,69,0.00,,SKC,0.00,VWS V13.01,2013-04-18 17:14:00,
2013-04-18 12:15:00,82.6,71.0,29.80,ESE,123,8.7,8.7,68,0.00,,SKC,0.00,VWS V13.01,2013-04-18 17:15:00,
2013-04-18 12:16:00,82.8,70.2,29.80,SE,139,10.1,10.1,66,0.00,,SKC,0.00,VWS V13.01,2013-04-18 17:16:00,
2013-04-18 12:17:00,83.1,71.0,29.80,SSE,156,6.3,6.3,67,0.00,,SKC,0.00,VWS V13.01,2013-04-18 17:17:00,
2013-04-18 12:18:00,83.3,70.8,29.80,SSW,193,7.6,7.6,66,0.00,,SKC,0.00,VWS V13.01,2013-04-18 17:18:00,
2013-04-18 12:19:00,83.5,71.4,29.80,South,178,10.1,10.5,67,0.00,,SKC,0.00,VWS V13.01,2013-04-18 17:19:00,
2013-04-18 12:20:00,83.8,71.7,29.80,South,179,4.0,10.1,67,0.00,,SKC,0.00,VWS V13.01,2013-04-18 17:20:00,
2013-04-18 12:21:00,84.0,71.9,29.80,SSW,201,8.3,8.3,67,0.00,,SKC,0.00,VWS V13.01,2013-04-18 17:21:00,
2013-04-18 12:22:00,84.0,71.4,29.80,South,173,8.1,8.3,66,0.00,,SKC,0.00,VWS V13.01,2013-04-18 17:22:00,
2013-04-18 12:23:00,84.0,71.0,29.80,SE,135,8.3,8.7,65,0.00,,SKC,0.00,VWS V13.01,2013-04-18 17:23:00,
2013-04-18 12:24:00,84.2,70.7,29.80,SSW,206,3.6,8.3,64,0.00,,SKC,0.00,VWS V13.01,2013-04-18 17:24:00,
2013-04-18 12:25:00,84.2,71.2,29.80,SSE,158,6.3,6.7,65,0.00,,SKC,0.00,VWS V13.01,2013-04-18 17:25:00,
2013-04-18 12:26:00,84.4,71.3,29.80,West,267,3.6,7.6,65,0.00,,SKC,0.00,VWS V13.01,2013-04-18 17:26:00,
2013-04-18 12:27:00,84.2,71.2,29.80,ESE,121,3.6,5.4,65,0.00,,SKC,0.00,VWS V13.01,2013-04-18 17:27:00,
2013-04-18 12:28:00,84.2,70.7,29.80,SSE,149,8.7,12.8,64,0.00,,SKC,0.00,VWS V13.01,2013-04-18 17:28:00,
2013-04-18 12:29:00,84.2,70.7,29.80,SSE,166,8.3,12.3,64,0.00,,SKC,0.00,VWS V13.01,2013-04-18 17:29:00,
2013-04-18 12:30:00,84.2,71.2,29.80,South,182,8.7,12.8,65,0.00,,SKC,0.00,VWS V13.01,2013-04-18 17:30:00,
2013-04-18 12:31:00,84.4,71.3,29.80,South,190,7.6,8.7,65,0.00,,SKC,0.00,VWS V13.01,2013-04-18 17:31:00,
2013-04-18 12:32:00,84.6,71.5,29.80,SE,143,8.3,8.3,65,0.00,,SKC,0.00,VWS V13.01,2013-04-18 17:32:00,
2013-04-18 12:33:00,84.6,71.5,29.80,SSE,168,6.3,8.3,65,0.00,,SKC,0.00,VWS V13.01,2013-04-18 17:33:00,
2013-04-18 12:34:00,84.6,71.1,29.80,SE,144,6.3,8.7,64,0.00,,SKC,0.00,VWS V13.01,2013-04-18 17:34:00,
2013-04-18 12:35:00,84.4,70.9,29.80,SSE,155,4.0,8.3,64,0.00,,SKC,0.00,VWS V13.01,2013-04-18 17:35:00,
2013-04-18 12:36:00,84.4,70.9,29.80,SSE,162,8.3,8.3,64,0.00,,SKC,0.00,VWS V13.01,2013-04-18 17:36:00,
2013-04-18 12:37:00,84.4,71.3,29.80,SSW,202,3.1,8.7,65,0.00,,SKC,0.00,VWS V13.01,2013-04-18 17:37:00,
2013-04-18 12:38:00,84.4,71.3,29.80,SSW,197,8.3,10.5,65,0.00,,SKC,0.00,VWS V13.01,2013-04-18 17:38:00,
2013-04-18 12:39:00,84.6,72.0,29.80,SSW,205,3.6,8.3,66,0.00,,SKC,0.00,VWS V13.01,2013-04-18 17:39:00,
2013-04-18 12:40:00,84.4,70.9,29.80,South,169,7.6,8.7,64,0.00,,SKC,0.00,VWS V13.01,2013-04-18 17:40:00,
2013-04-18 12:41:00,84.6,71.5,29.80,SSE,161,11.0,11.0,65,0.00,,SKC,0.00,VWS V13.01,2013-04-18 17:41:00,
2013-04-18 12:42:00,84.7,71.7,29.80,SSW,202,6.3,11.0,65,0.00,,SKC,0.00,VWS V13.01,2013-04-18 17:42:00,
2013-04-18 12:43:00,84.9,71.4,29.80,SE,141,5.4,6.3,64,0.00,,SKC,0.00,VWS V13.01,2013-04-18 17:43:00,
2013-04-18 12:44:00,85.1,72.0,29.80,SE,137,8.7,8.7,65,0.00,,SKC,0.00,VWS V13.01,2013-04-18 17:44:00,
2013-04-18 12:45:00,85.1,72.0,29.77,South,177,9.6,9.6,65,0.00,,SKC,0.00,VWS V13.01,2013-04-18 17:45:00,
2013-04-18 12:46:00,85.1,71.6,29.77,SSE,153,8.3,9.6,64,0.00,,SKC,0.00,VWS V13.01,2013-04-18 17:46:00,
2013-04-18 12:47:00,84.9,71.4,29.77,South,182,12.8,12.8,64,0.00,,SKC,0.00,VWS V13.01,2013-04-18 17:47:00,
2013-04-18 12:48:00,84.9,71.8,29.77,SSW,199,4.0,12.8,65,0.00,,SKC,0.00,VWS V13.01,2013-04-18 17:48:00,
2013-04-18 12:49:00,84.9,71.8,29.77,SE,145,5.8,8.7,65,0.00,,SKC,0.00,VWS V13.01,2013-04-18 17:49:00,
2013-04-18 12:50:00,84.6,71.1,29.77,South,178,5.8,5.8,64,0.00,,SKC,0.00,VWS V13.01,2013-04-18 17:50:00,
2013-04-18 12:51:00,84.6,71.1,29.77,East,95,8.7,8.7,64,0.00,,SKC,0.00,VWS V13.01,2013-04-18 17:51:00,
2013-04-18 12:52:00,84.6,71.1,29.77,ESE,123,8.1,8.7,64,0.00,,SKC,0.00,VWS V13.01,2013-04-18 17:52:00,
2013-04-18 12:53:00,84.7,71.2,29.77,SSE,157,5.8,10.1,64,0.00,,SKC,0.00,VWS V13.01,2013-04-18 17:53:00,
2013-04-18 12:54:00,84.6,71.1,29.77,SSE,150,8.7,8.7,64,0.00,,SKC,0.00,VWS V13.01,2013-04-18 17:54:00,
2013-04-18 12:55:00,84.6,71.1,29.77,SE,134,6.3,10.5,64,0.00,,SKC,0.00,VWS V13.01,2013-04-18 17:55:00,
2013-04-18 12:56:00,84.6,71.1,29.77,SE,127,7.6,10.1,64,0.00,,SKC,0.00,VWS V13.01,2013-04-18 17:56:00,
2013-04-18 12:57:00,84.4,70.9,29.77,SE,132,3.6,7.6,64,0.00,,SKC,0.00,VWS V13.01,2013-04-18 17:57:00,
2013-04-18 12:58:00,84.2,70.7,29.77,SE,124,8.7,8.7,64,0.00,,SKC,0.00,VWS V13.01,2013-04-18 17:58:00,
2013-04-18 12:59:00,84.2,70.7,29.77,South,188,5.4,8.7,64,0.00,,SKC,0.00,VWS V13.01,2013-04-18 17:59:00,
2013-04-18 13:00:00,84.2,71.2,29.77,SSE,155,5.8,5.8,65,0.00,,SKC,0.00,VWS V13.01,2013-04-18 18:00:00,
2013-04-18 13:01:00,84.0,71.0,29.77,SSW,194,8.7,8.7,65,0.00,,SKC,0.00,VWS V13.01,2013-04-18 18:01:00,
2013-04-18 13:02:00,84.2,71.2,29.77,SSE,154,11.0,12.8,65,0.00,,SKC,0.00,VWS V13.01,2013-04-18 18:02:00,
2013-04-18 13:03:00,84.4,71.8,29.77,SE,145,2.7,11.0,66,0.00,,SKC,0.00,VWS V13.01,2013-04-18 18:03:00,
2013-04-18 13:04:00,84.6,71.1,29.77,SE,125,5.8,7.6,64,0.00,,SKC,0.00,VWS V13.01,2013-04-18 18:04:00,
2013-04-18 13:05:00,84.6,71.1,29.77,SE,141,6.3,7.6,64,0.00,,SKC,0.00,VWS V13.01,2013-04-18 18:05:00,
2013-04-18 13:06:00,84.7,71.7,29.77,SSE,151,10.5,10.5,65,0.00,,SKC,0.00,VWS V13.01,2013-04-18 18:06:00,
2013-04-18 13:07:00,84.9,71.4,29.77,ESE,115,7.6,10.5,64,0.00,,SKC,0.00,VWS V13.01,2013-04-18 18:07:00,
2013-04-18 13:08:00,84.9,71.4,29.77,SE,135,5.8,7.6,64,0.00,,SKC,0.00,VWS V13.01,2013-04-18 18:08:00,
2013-04-18 13:09:00,84.9,71.4,29.77,ESE,115,5.8,8.1,64,0.00,,SKC,0.00,VWS V13.01,2013-04-18 18:09:00,
2013-04-18 13:10:00,84.7,71.7,29.77,South,176,5.8,7.2,65,0.00,,SKC,0.00,VWS V13.01,2013-04-18 18:10:00,
2013-04-18 13:11:00,84.7,71.7,29.77,SSE,161,8.3,8.3,65,0.00,,SKC,0.00,VWS V13.01,2013-04-18 18:11:00,
2013-04-18 13:12:00,84.7,72.1,29.77,East,94,3.6,8.3,66,0.00,,SKC,0.00,VWS V13.01,2013-04-18 18:12:00,
2013-04-18 13:13:00,84.6,71.1,29.77,SSW,192,8.1,10.1,64,0.00,,SKC,0.00,VWS V13.01,2013-04-18 18:13:00,
2013-04-18 13:14:00,84.4,71.3,29.77,SSW,195,7.6,10.1,65,0.00,,SKC,0.00,VWS V13.01,2013-04-18 18:14:00,
2013-04-18 13:15:00,84.4,71.3,29.77,South,183,8.1,11.9,65,0.00,,SKC,0.00,VWS V13.01,2013-04-18 18:15:00,
2013-04-18 13:16:00,84.4,71.3,29.77,South,175,8.7,9.6,65,0.00,,SKC,0.00,VWS V13.01,2013-04-18 18:16:00,
2013-04-18 13:17:00,84.4,71.3,29.77,SSW,209,8.7,8.7,65,0.00,,SKC,0.00,VWS V13.01,2013-04-18 18:17:00,
2013-04-18 13:18:00,84.2,70.7,29.77,SE,142,5.4,8.1,64,0.00,,SKC,0.00,VWS V13.01,2013-04-18 18:18:00,
2013-04-18 13:19:00,84.2,70.7,29.77,SSW,195,4.0,5.4,64,0.00,,SKC,0.00,VWS V13.01,2013-04-18 18:19:00,
2013-04-18 13:20:00,84.0,71.0,29.77,SSE,155,6.3,6.3,65,0.00,,SKC,0.00,VWS V13.01,2013-04-18 18:20:00,
2013-04-18 13:21:00,83.8,70.8,29.77,ESE,120,5.4,6.3,65,0.00,,SKC,0.00,VWS V13.01,2013-04-18 18:21:00,
2013-04-18 13:22:00,83.8,70.8,29.77,South,172,8.3,9.6,65,0.00,,SKC,0.00,VWS V13.01,2013-04-18 18:22:00,
2013-04-18 13:23:00,83.8,71.7,29.77,SE,145,4.5,7.6,67,0.00,,SKC,0.00,VWS V13.01,2013-04-18 18:23:00,
2013-04-18 13:24:00,83.8,71.7,29.77,South,179,11.0,11.0,67,0.00,,SKC,0.00,VWS V13.01,2013-04-18 18:24:00,
2013-04-18 13:25:00,83.7,71.6,29.77,ESE,112,8.3,11.0,67,0.00,,SKC,0.00,VWS V13.01,2013-04-18 18:25:00,
2013-04-18 13:26:00,83.7,71.1,29.77,SSE,161,4.5,8.3,66,0.00,,SKC,0.00,VWS V13.01,2013-04-18 18:26:00,
2013-04-18 13:27:00,83.7,70.7,29.77,SSE,165,8.7,8.7,65,0.00,,SKC,0.00,VWS V13.01,2013-04-18 18:27:00,
2013-04-18 13:28:00,83.8,71.3,29.77,South,181,8.1,9.6,66,0.00,,SKC,0.00,VWS V13.01,2013-04-18 18:28:00,
2013-04-18 13:29:00,83.8,70.8,29.77,SSE,168,5.4,8.1,65,0.00,,SKC,0.00,VWS V13.01,2013-04-18 18:29:00,
2013-04-18 13:30:00,84.2,71.6,29.77,SSE,168,8.7,8.7,66,0.00,,SKC,0.00,VWS V13.01,2013-04-18 18:30:00,
2013-04-18 13:31:00,84.0,71.0,29.77,South,171,11.0,11.0,65,0.00,,SKC,0.00,VWS V13.01,2013-04-18 18:31:00,
2013-04-18 13:32:00,84.0,71.0,29.77,SE,141,5.4,11.4,65,0.00,,SKC,0.00,VWS V13.01,2013-04-18 18:32:00,
2013-04-18 13:33:00,84.0,71.0,29.77,ESE,110,7.6,8.7,65,0.00,,SKC,0.00,VWS V13.01,2013-04-18 18:33:00,
2013-04-18 13:34:00,84.0,71.0,29.77,East,94,8.3,8.3,65,0.00,,SKC,0.00,VWS V13.01,2013-04-18 18:34:00,
2013-04-18 13:35:00,83.8,70.8,29.77,South,190,5.8,8.3,65,0.00,,SKC,0.00,VWS V13.01,2013-04-18 18:35:00,
2013-04-18 13:36:00,83.7,70.7,29.77,SE,128,5.8,8.3,65,0.00,,SKC,0.00,VWS V13.01,2013-04-18 18:36:00,
2013-04-18 13:37:00,83.7,70.7,29.77,ESE,117,6.7,9.6,65,0.00,,SKC,0.00,VWS V13.01,2013-04-18 18:37:00,
2013-04-18 13:38:00,83.5,70.5,29.77,SSW,196,11.0,11.0,65,0.00,,SKC,0.00,VWS V13.01,2013-04-18 18:38:00,
2013-04-18 13:39:00,83.5,70.9,29.77,South,174,5.4,11.0,66,0.00,,SKC,0.00,VWS V13.01,2013-04-18 18:39:00,
2013-04-18 13:40:00,83.3,71.2,29.77,South,169,10.5,10.5,67,0.00,,SKC,0.00,VWS V13.01,2013-04-18 18:40:00,
2013-04-18 13:41:00,83.1,70.6,29.77,South,186,6.7,11.0,66,0.00,,SKC,0.00,VWS V13.01,2013-04-18 18:41:00,
2013-04-18 13:42:00,82.9,70.4,29.77,SE,128,5.8,11.9,66,0.00,,SKC,0.00,VWS V13.01,2013-04-18 18:42:00,
2013-04-18 13:43:00,82.9,70.9,29.77,SSE,166,5.8,8.3,67,0.00,,SKC,0.00,VWS V13.01,2013-04-18 18:43:00,
2013-04-18 13:44:00,82.8,70.7,29.77,SSE,157,13.2,13.2,67,0.00,,SKC,0.00,VWS V13.01,2013-04-18 18:44:00,
2013-04-18 13:45:00,82.6,70.5,29.77,South,178,5.4,13.2,67,0.00,,SKC,0.00,VWS V13.01,2013-04-18 18:45:00,
2013-04-18 13:46:00,82.6,71.0,29.77,South,179,7.6,11.4,68,0.00,,SKC,0.00,VWS V13.01,2013-04-18 18:46:00,
2013-04-18 13:47:00,82.6,71.0,29.77,SSW,202,10.5,12.8,68,0.00,,SKC,0.00,VWS V13.01,2013-04-18 18:47:00,
2013-04-18 13:48:00,82.6,71.4,29.77,South,176,15.0,15.4,69,0.00,,SKC,0.00,VWS V13.01,2013-04-18 18:48:00,
2013-04-18 13:49:00,82.6,71.0,29.77,SSE,154,8.1,15.0,68,0.00,,SKC,0.00,VWS V13.01,2013-04-18 18:49:00,
2013-04-18 13:50:00,82.6,70.5,29.77,SSE,159,6.3,8.1,67,0.00,,SKC,0.00,VWS V13.01,2013-04-18 18:50:00,
2013-04-18 13:51:00,82.6,70.5,29.77,SSE,167,6.3,8.1,67,0.00,,SKC,0.00,VWS V13.01,2013-04-18 18:51:00,
2013-04-18 13:52:00,82.6,70.5,29.77,South,176,8.1,11.9,67,0.00,,SKC,0.00,VWS V13.01,2013-04-18 18:52:00,
2013-04-18 13:53:00,82.6,71.0,29.77,SE,138,8.1,13.2,68,0.00,,SKC,0.00,VWS V13.01,2013-04-18 18:53:00,
2013-04-18 13:54:00,82.6,71.4,29.77,South,179,8.3,8.3,69,0.00,,SKC,0.00,VWS V13.01,2013-04-18 18:54:00,
2013-04-18 13:55:00,82.6,71.4,29.77,SSE,160,11.0,11.0,69,0.00,,SKC,0.00,VWS V13.01,2013-04-18 18:55:00,
2013-04-18 13:56:00,82.8,71.6,29.77,SSW,202,7.2,11.0,69,0.00,,SKC,0.00,VWS V13.01,2013-04-18 18:56:00,
2013-04-18 13:57:00,82.8,70.7,29.77,SSW,199,4.9,7.2,67,0.00,,SKC,0.00,VWS V13.01,2013-04-18 18:57:00,
2013-04-18 13:58:00,82.9,71.3,29.77,SE,136,7.6,11.0,68,0.00,,SKC,0.00,VWS V13.01,2013-04-18 18:58:00,
2013-04-18 13:59:00,82.8,70.7,29.77,SSW,202,6.3,8.1,67,0.00,,SKC,0.00,VWS V13.01,2013-04-18 18:59:00,
2013-04-18 14:00:00,82.8,70.7,29.77,SSE,164,5.8,7.6,67,0.00,,SKC,0.00,VWS V13.01,2013-04-18 19:00:00,
2013-04-18 14:01:00,82.8,70.7,29.77,SE,138,5.4,11.0,67,0.00,,SKC,0.00,VWS V13.01,2013-04-18 19:01:00,
2013-04-18 14:02:00,82.8,71.1,29.77,SSE,147,8.3,10.5,68,0.00,,SKC,0.00,VWS V13.01,2013-04-18 19:02:00,
2013-04-18 14:03:00,82.8,70.7,29.77,South,187,4.0,5.8,67,0.00,,SKC,0.00,VWS V13.01,2013-04-18 19:03:00,
2013-04-18 14:04:00,82.8,70.7,29.77,South,190,8.3,11.9,67,0.00,,SKC,0.00,VWS V13.01,2013-04-18 19:04:00,
2013-04-18 14:05:00,82.8,70.7,29.77,SSE,159,8.1,8.7,67,0.00,,SKC,0.00,VWS V13.01,2013-04-18 19:05:00,
2013-04-18 14:06:00,82.6,70.5,29.77,SSE,166,5.4,8.1,67,0.00,,SKC,0.00,VWS V13.01,2013-04-18 19:06:00,
2013-04-18 14:07:00,82.8,71.1,29.77,SSE,168,8.1,8.1,68,0.00,,SKC,0.00,VWS V13.01,2013-04-18 19:07:00,
2013-04-18 14:08:00,82.8,70.7,29.77,SE,130,5.8,10.1,67,0.00,,SKC,0.00,VWS V13.01,2013-04-18 19:08:00,
2013-04-18 14:09:00,82.6,70.5,29.77,SSE,154,5.8,10.1,67,0.00,,SKC,0.00,VWS V13.01,2013-04-18 19:09:00,
2013-04-18 14:10:00,82.6,70.5,29.77,South,170,5.8,5.8,67,0.00,,SKC,0.00,VWS V13.01,2013-04-18 19:10:00,
2013-04-18 14:11:00,82.6,70.5,29.77,South,182,10.5,10.5,67,0.00,,SKC,0.00,VWS V13.01,2013-04-18 19:11:00,
2013-04-18 14:12:00,82.4,70.3,29.77,SSW,193,11.0,11.0,67,0.00,,SKC,0.00,VWS V13.01,2013-04-18 19:12:00,
2013-04-18 14:13:00,82.2,70.6,29.77,SSE,166,12.8,12.8,68,0.00,,SKC,0.00,VWS V13.01,2013-04-18 19:13:00,
2013-04-18 14:14:00,82.2,70.6,29.77,South,181,10.1,12.8,68,0.00,,SKC,0.00,VWS V13.01,2013-04-18 19:14:00,
2013-04-18 14:15:00,82.2,71.0,29.77,South,189,7.6,10.5,69,0.00,,SKC,0.00,VWS V13.01,2013-04-18 19:15:00,
2013-04-18 14:16:00,82.2,71.0,29.77,South,178,5.8,7.6,69,0.00,,SKC,0.00,VWS V13.01,2013-04-18 19:16:00,
2013-04-18 14:17:00,82.0,70.4,29.77,South,190,8.3,10.5,68,0.00,,SKC,0.00,VWS V13.01,2013-04-18 19:17:00,
2013-04-18 14:18:00,82.0,70.4,29.77,SSE,163,6.3,8.7,68,0.00,,SKC,0.00,VWS V13.01,2013-04-18 19:18:00,
2013-04-18 14:19:00,81.9,70.3,29.77,SSE,166,10.5,11.0,68,0.00,,SKC,0.00,VWS V13.01,2013-04-18 19:19:00,
2013-04-18 14:20:00,81.9,70.3,29.77,SE,133,6.3,10.5,68,0.00,,SKC,0.00,VWS V13.01,2013-04-18 19:20:00,
2013-04-18 14:21:00,81.7,70.5,29.77,SSE,147,8.1,8.7,69,0.00,,SKC,0.00,VWS V13.01,2013-04-18 19:21:00,
2013-04-18 14:22:00,81.5,70.4,29.77,South,189,5.4,8.1,69,0.00,,SKC,0.00,VWS V13.01,2013-04-18 19:22:00,
2013-04-18 14:23:00,81.3,71.0,29.77,South,183,6.3,8.3,71,0.00,,SKC,0.00,VWS V13.01,2013-04-18 19:23:00,
2013-04-18 14:24:00,81.1,70.8,29.77,SSW,193,5.8,13.2,71,0.00,,SKC,0.00,VWS V13.01,2013-04-18 19:24:00,
2013-04-18 14:25:00,81.0,70.7,29.77,SE,142,8.1,8.3,71,0.00,,SKC,0.00,VWS V13.01,2013-04-18 19:25:00,
2013-04-18 14:26:00,81.0,71.5,29.77,South,185,11.4,11.4,73,0.00,,SKC,0.00,VWS V13.01,2013-04-18 19:26:00,
2013-04-18 14:27:00,81.0,71.1,29.77,SSW,207,5.8,11.4,72,0.00,,SKC,0.00,VWS V13.01,2013-04-18 19:27:00,
2013-04-18 14:28:00,80.8,71.3,29.77,South,179,4.0,10.1,73,0.00,,SKC,0.00,VWS V13.01,2013-04-18 19:28:00,
2013-04-18 14:29:00,80.8,71.3,29.77,South,179,8.3,8.3,73,0.00,,SKC,0.00,VWS V13.01,2013-04-18 19:29:00,
2013-04-18 14:30:00,80.6,71.2,29.77,SE,144,5.8,8.3,73,0.00,,SKC,0.00,VWS V13.01,2013-04-18 19:30:00,
2013-04-18 14:31:00,80.4,71.4,29.77,South,184,10.5,10.5,74,0.00,,SKC,0.00,VWS V13.01,2013-04-18 19:31:00,
2013-04-18 14:32:00,80.4,71.4,29.77,SSW,202,4.9,10.5,74,0.00,,SKC,0.00,VWS V13.01,2013-04-18 19:32:00,
2013-04-18 14:33:00,80.2,71.2,29.77,SSW,204,6.7,10.1,74,0.00,,SKC,0.00,VWS V13.01,2013-04-18 19:33:00,
2013-04-18 14:34:00,80.1,71.0,29.77,South,183,8.1,11.0,74,0.00,,SKC,0.00,VWS V13.01,2013-04-18 19:34:00,
2013-04-18 14:35:00,80.1,71.0,29.77,SSW,205,5.8,10.1,74,0.00,,SKC,0.00,VWS V13.01,2013-04-18 19:35:00,
2013-04-18 14:36:00,79.9,70.9,29.77,SSW,192,13.2,14.1,74,0.00,,SKC,0.00,VWS V13.01,2013-04-18 19:36:00,
2013-04-18 14:37:00,79.9,70.9,29.77,South,176,10.1,13.2,74,0.00,,SKC,0.00,VWS V13.01,2013-04-18 19:37:00,
2013-04-18 14:38:00,79.9,70.9,29.77,SSW,193,5.4,11.0,74,0.00,,SKC,0.00,VWS V13.01,2013-04-18 19:38:00,
2013-04-18 14:39:00,79.9,71.2,29.77,South,183,9.6,10.1,75,0.00,,SKC,0.00,VWS V13.01,2013-04-18 19:39:00,
2013-04-18 14:40:00,79.9,70.9,29.77,South,191,9.2,9.6,74,0.00,,SKC,0.00,VWS V13.01,2013-04-18 19:40:00,
2013-04-18 14:41:00,79.9,71.2,29.77,SE,144,5.4,10.1,75,0.00,,SKC,0.00,VWS V13.01,2013-04-18 19:41:00,
2013-04-18 14:42:00,79.9,71.2,29.77,SSE,165,6.3,8.3,75,0.00,,SKC,0.00,VWS V13.01,2013-04-18 19:42:00,
2013-04-18 14:43:00,79.9,70.9,29.77,South,172,12.3,12.3,74,0.00,,SKC,0.00,VWS V13.01,2013-04-18 19:43:00,
2013-04-18 14:44:00,79.9,71.2,29.77,SSE,160,3.1,12.3,75,0.00,,SKC,0.00,VWS V13.01,2013-04-18 19:44:00,
2013-04-18 14:45:00,80.1,71.4,29.74,South,180,6.3,8.3,75,0.00,,SKC,0.00,VWS V13.01,2013-04-18 19:45:00,
2013-04-18 14:46:00,79.9,71.2,29.74,SSW,202,5.8,7.6,75,0.00,,SKC,0.00,VWS V13.01,2013-04-18 19:46:00,
2013-04-18 14:47:00,80.1,71.0,29.74,SE,144,8.3,8.3,74,0.00,,SKC,0.00,VWS V13.01,2013-04-18 19:47:00,
2013-04-18 14:48:00,79.9,70.9,29.74,SE,146,5.4,8.7,74,0.00,,SKC,0.00,VWS V13.01,2013-04-18 19:48:00,
2013-04-18 14:49:00,80.1,71.0,29.74,SSW,201,10.1,10.5,74,0.00,,SKC,0.00,VWS V13.01,2013-04-18 19:49:00,
2013-04-18 14:50:00,80.1,71.4,29.74,SE,132,5.4,11.0,75,0.00,,SKC,0.00,VWS V13.01,2013-04-18 19:50:00,
2013-04-18 14:51:00,80.1,71.4,29.74,South,171,6.3,8.7,75,0.00,,SKC,0.00,VWS V13.01,2013-04-18 19:51:00,
2013-04-18 14:52:00,80.4,71.8,29.74,South,180,8.1,8.3,75,0.00,,SKC,0.00,VWS V13.01,2013-04-18 19:52:00,
2013-04-18 14:53:00,80.6,71.9,29.74,SSE,155,9.6,9.6,75,0.00,,SKC,0.00,VWS V13.01,2013-04-18 19:53:00,
2013-04-18 14:54:00,80.6,71.9,29.74,South,178,7.2,9.6,75,0.00,,SKC,0.00,VWS V13.01,2013-04-18 19:54:00,
2013-04-18 14:55:00,80.8,72.1,29.74,SE,127,7.6,8.7,75,0.00,,SKC,0.00,VWS V13.01,2013-04-18 19:55:00,
2013-04-18 14:56:00,80.8,71.7,29.74,SSE,161,5.4,8.1,74,0.00,,SKC,0.00,VWS V13.01,2013-04-18 19:56:00,
2013-04-18 14:57:00,80.8,71.3,29.74,ESE,118,3.6,5.8,73,0.00,,SKC,0.00,VWS V13.01,2013-04-18 19:57:00,
2013-04-18 14:58:00,80.8,71.7,29.74,South,177,4.9,6.3,74,0.00,,SKC,0.00,VWS V13.01,2013-04-18 19:58:00,
2013-04-18 14:59:00,80.6,71.6,29.74,South,182,10.5,10.5,74,0.00,,SKC,0.00,VWS V13.01,2013-04-18 19:59:00,
2013-04-18 15:00:00,80.4,71.4,29.74,South,185,6.3,10.5,74,0.00,,SKC,0.00,VWS V13.01,2013-04-18 20:00:00,
2013-04-18 15:01:00,80.4,71.4,29.74,SSW,206,4.0,10.5,74,0.00,,SKC,0.00,VWS V13.01,2013-04-18 20:01:00,
2013-04-18 15:02:00,80.4,71.4,29.74,ENE,68,2.7,7.6,74,0.00,,SKC,0.00,VWS V13.01,2013-04-18 20:02:00,
2013-04-18 15:03:00,80.2,71.2,29.74,SW,230,6.3,6.3,74,0.00,,SKC,0.00,VWS V13.01,2013-04-18 20:03:00,
2013-04-18 15:04:00,80.2,71.2,29.74,South,187,5.8,6.3,74,0.00,,SKC,0.00,VWS V13.01,2013-04-18 20:04:00,
2013-04-18 15:05:00,80.1,71.4,29.74,South,169,5.4,5.8,75,0.00,,SKC,0.00,VWS V13.01,2013-04-18 20:05:00,
2013-04-18 15:06:00,80.1,71.4,29.74,South,184,3.6,5.8,75,0.00,,SKC,0.00,VWS V13.01,2013-04-18 20:06:00,
2013-04-18 15:07:00,80.1,71.4,29.74,SSW,204,8.7,8.7,75,0.00,,SKC,0.00,VWS V13.01,2013-04-18 20:07:00,
2013-04-18 15:08:00,80.1,71.4,29.74,South,176,10.1,10.1,75,0.00,,SKC,0.00,VWS V13.01,2013-04-18 20:08:00,
2013-04-18 15:09:00,80.1,71.4,29.74,SSE,153,3.6,12.3,75,0.00,,SKC,0.00,VWS V13.01,2013-04-18 20:09:00,
2013-04-18 15:10:00,80.1,71.4,29.74,South,175,8.3,8.3,75,0.00,,SKC,0.00,VWS V13.01,2013-04-18 20:10:00,
2013-04-18 15:11:00,80.1,71.4,29.74,South,172,5.4,9.2,75,0.00,,SKC,0.00,VWS V13.01,2013-04-18 20:11:00,
2013-04-18 15:12:00,80.1,71.4,29.74,SSE,149,8.7,8.7,75,0.00,,SKC,0.00,VWS V13.01,2013-04-18 20:12:00,
2013-04-18 15:13:00,80.1,71.4,29.74,South,175,6.3,7.6,75,0.00,,SKC,0.00,VWS V13.01,2013-04-18 20:13:00,
2013-04-18 15:14:00,80.1,71.4,29.74,SE,138,4.0,6.3,75,0.00,,SKC,0.00,VWS V13.01,2013-04-18 20:14:00,
2013-04-18 15:15:00,79.9,71.2,29.74,SSE,165,3.6,4.0,75,0.00,,SKC,0.00,VWS V13.01,2013-04-18 20:15:00,
2013-04-18 15:16:00,79.7,71.1,29.74,South,190,3.6,4.9,75,0.00,,SKC,0.00,VWS V13.01,2013-04-18 20:16:00,
2013-04-18 15:17:00,79.7,71.1,29.74,SSE,156,7.6,8.1,75,0.00,,SKC,0.00,VWS V13.01,2013-04-18 20:17:00,
2013-04-18 15:18:00,79.5,70.9,29.74,SSE,163,5.4,8.1,75,0.00,,SKC,0.00,VWS V13.01,2013-04-18 20:18:00,
2013-04-18 15:19:00,79.3,71.1,29.74,SE,127,6.3,6.3,76,0.00,,SKC,0.00,VWS V13.01,2013-04-18 20:19:00,
2013-04-18 15:20:00,79.3,71.1,29.74,SSE,167,8.3,10.5,76,0.00,,SKC,0.00,VWS V13.01,2013-04-18 20:20:00,
2013-04-18 15:21:00,79.3,71.1,29.74,South,175,4.9,12.8,76,0.00,,SKC,0.00,VWS V13.01,2013-04-18 20:21:00,
2013-04-18 15:22:00,79.3,71.1,29.74,SE,141,6.3,9.6,76,0.00,,SKC,0.00,VWS V13.01,2013-04-18 20:22:00,
2013-04-18 15:23:00,79.3,71.1,29.74,SSE,163,2.2,6.3,76,0.00,,SKC,0.00,VWS V13.01,2013-04-18 20:23:00,
2013-04-18 15:24:00,79.2,70.9,29.74,SE,146,10.1,10.1,76,0.00,,SKC,0.00,VWS V13.01,2013-04-18 20:24:00,
2013-04-18 15:25:00,79.2,70.9,29.74,SSW,200,6.3,10.1,76,0.00,,SKC,0.00,VWS V13.01,2013-04-18 20:25:00,
2013-04-18 15:26:00,79.2,71.3,29.74,SE,141,5.4,11.9,77,0.00,,SKC,0.00,VWS V13.01,2013-04-18 20:26:00,
2013-04-18 15:27:00,79.2,70.9,29.74,SE,139,3.1,3.1,76,0.00,,SKC,0.00,VWS V13.01,2013-04-18 20:27:00,
2013-04-18 15:28:00,79.3,71.1,29.74,SE,134,4.0,4.9,76,0.00,,SKC,0.00,VWS V13.01,2013-04-18 20:28:00,
2013-04-18 15:29:00,79.3,71.5,29.74,ESE,120,5.8,8.7,77,0.00,,SKC,0.00,VWS V13.01,2013-04-18 20:29:00,
2013-04-18 15:30:00,79.2,70.9,29.74,SSE,154,2.7,8.1,76,0.00,,SKC,0.00,VWS V13.01,2013-04-18 20:30:00,
2013-04-18 15:31:00,79.2,70.9,29.74,SSW,202,4.0,8.1,76,0.00,,SKC,0.00,VWS V13.01,2013-04-18 20:31:00,
2013-04-18 15:32:00,79.2,70.9,29.74,SE,138,7.6,8.3,76,0.00,,SKC,0.00,VWS V13.01,2013-04-18 20:32:00,
2013-04-18 15:33:00,79.2,71.3,29.74,South,176,7.6,7.6,77,0.00,,SKC,0.00,VWS V13.01,2013-04-18 20:33:00,
2013-04-18 15:34:00,79.2,71.3,29.74,South,179,3.1,10.5,77,0.00,,SKC,0.00,VWS V13.01,2013-04-18 20:34:00,
2013-04-18 15:35:00,79.0,70.8,29.74,South,180,7.6,8.3,76,0.00,,SKC,0.00,VWS V13.01,2013-04-18 20:35:00,
2013-04-18 15:36:00,79.2,71.3,29.74,SSE,160,6.3,9.6,77,0.00,,SKC,0.00,VWS V13.01,2013-04-18 20:36:00,
2013-04-18 15:37:00,79.0,70.8,29.74,SSE,159,10.5,10.5,76,0.00,,SKC,0.00,VWS V13.01,2013-04-18 20:37:00,
2013-04-18 15:38:00,79.0,71.2,29.74,SSE,149,4.0,10.5,77,0.00,,SKC,0.00,VWS V13.01,2013-04-18 20:38:00,
2013-04-18 18:00:00,77.4,72.5,29.74,South,173,5.8,5.8,85,0.00,,SKC,0.00,VWS V13.01,2013-04-18 23:00:00,
2013-04-18 18:05:00,77.2,72.3,29.74,SSE,153,4.9,8.1,85,0.00,,SKC,0.00,VWS V13.01,2013-04-18 23:05:00,
2013-04-18 18:10:00,77.2,72.3,29.74,South,177,8.1,10.5,85,0.00,,SKC,0.00,VWS V13.01,2013-04-18 23:10:00,
2013-04-18 18:15:00,77.2,72.3,29.74,South,170,5.4,7.6,85,0.00,,SKC,0.00,VWS V13.01,2013-04-18 23:15:00,
2013-04-18 18:20:00,77.0,72.5,29.74,South,180,5.4,7.6,86,0.00,,SKC,0.00,VWS V13.01,2013-04-18 23:20:00,
2013-04-18 18:25:00,77.0,72.5,29.74,SSE,155,5.8,8.3,86,0.00,,SKC,0.00,VWS V13.01,2013-04-18 23:25:00,
2013-04-18 18:30:00,76.8,72.7,29.74,SE,137,8.1,12.3,87,0.00,,SKC,0.00,VWS V13.01,2013-04-18 23:30:00,
2013-04-18 18:35:00,76.8,72.7,29.71,SSE,161,6.3,6.3,87,0.00,,SKC,0.00,VWS V13.01,2013-04-18 23:35:00,
2013-04-18 18:40:00,76.8,73.0,29.71,SSE,160,4.0,6.3,88,0.00,,SKC,0.00,VWS V13.01,2013-04-18 23:40:00,
2013-04-18 18:45:00,76.6,72.8,29.71,South,171,10.5,10.5,88,0.00,,SKC,0.00,VWS V13.01,2013-04-18 23:45:00,
2013-04-18 18:50:00,76.6,72.8,29.71,SE,130,5.4,8.7,88,0.00,,SKC,0.00,VWS V13.01,2013-04-18 23:50:00,
2013-04-18 18:54:00,76.6,73.2,29.71,SSW,193,6.3,7.6,89,0.00,,SKC,0.00,VWS V13.01,2013-04-18 23:54:00,
2013-04-18 18:59:00,76.6,73.2,29.71,South,180,6.3,7.6,89,0.00,,SKC,0.00,VWS V13.01,2013-04-18 23:59:00,
2013-04-18 19:04:00,76.5,73.0,29.71,South,188,8.3,8.3,89,0.00,,SKC,0.00,VWS V13.01,2013-04-19 00:04:00,
2013-04-18 19:09:00,76.3,73.1,29.71,South,185,3.6,4.9,90,0.00,,SKC,0.00,VWS V13.01,2013-04-19 00:09:00,
2013-04-18 19:14:00,76.3,73.5,29.71,South,179,5.8,6.3,91,0.00,,SKC,0.00,VWS V13.01,2013-04-19 00:14:00,
2013-04-18 19:19:00,76.1,73.3,29.71,South,180,3.6,12.3,91,0.00,,SKC,0.00,VWS V13.01,2013-04-19 00:19:00,
2013-04-18 19:24:00,76.1,73.3,29.71,SSE,161,12.3,12.3,91,0.00,,SKC,0.00,VWS V13.01,2013-04-19 00:24:00,
2013-04-18 19:29:00,75.9,73.4,29.71,South,177,5.4,5.8,92,0.00,,SKC,0.00,VWS V13.01,2013-04-19 00:29:00,
2013-04-18 19:34:00,75.9,73.8,29.71,SSE,160,4.9,7.6,93,0.00,,SKC,0.00,VWS V13.01,2013-04-19 00:34:00,
2013-04-18 19:39:00,75.9,73.8,29.71,SSE,158,10.5,10.5,93,0.00,,SKC,0.00,VWS V13.01,2013-04-19 00:39:00,
2013-04-18 19:44:00,75.9,73.8,29.71,SE,144,4.9,4.9,93,0.00,,SKC,0.00,VWS V13.01,2013-04-19 00:44:00,
2013-04-18 19:49:00,75.7,73.6,29.71,SSW,203,3.1,4.9,93,0.00,,SKC,0.00,VWS V13.01,2013-04-19 00:49:00,
2013-04-18 19:54:00,75.7,73.9,29.71,South,179,8.1,8.1,94,0.00,,SKC,0.00,VWS V13.01,2013-04-19 00:54:00,
2013-04-18 19:59:00,75.6,73.7,29.71,SSE,158,10.1,10.1,94,0.00,,SKC,0.00,VWS V13.01,2013-04-19 00:59:00,
2013-04-18 20:04:00,75.6,74.0,29.71,South,177,5.4,6.7,95,0.00,,SKC,0.00,VWS V13.01,2013-04-19 01:04:00,
2013-04-18 20:09:00,75.6,74.0,29.71,SSE,167,6.3,6.3,95,0.00,,SKC,0.00,VWS V13.01,2013-04-19 01:09:00,
2013-04-18 20:14:00,75.6,74.3,29.71,South,169,3.1,5.8,96,0.00,,SKC,0.00,VWS V13.01,2013-04-19 01:14:00,
2013-04-18 20:19:00,75.6,74.3,29.71,South,181,5.8,10.1,96,0.00,,SKC,0.00,VWS V13.01,2013-04-19 01:19:00,
2013-04-18 20:24:00,75.6,74.3,29.71,SSE,163,5.8,5.8,96,0.00,,SKC,0.00,VWS V13.01,2013-04-19 01:24:00,
2013-04-18 20:29:00,75.6,74.7,29.71,SSE,157,10.1,11.0,97,0.00,,SKC,0.00,VWS V13.01,2013-04-19 01:29:00,
2013-04-18 20:34:00,75.6,74.7,29.71,SSW,196,3.1,5.4,97,0.00,,SKC,0.00,VWS V13.01,2013-04-19 01:34:00,
2013-04-18 20:39:00,75.6,74.7,29.71,SSW,199,5.4,8.1,97,0.00,,SKC,0.00,VWS V13.01,2013-04-19 01:39:00,
2013-04-18 20:44:00,75.6,74.7,29.71,South,182,8.1,8.3,97,0.00,,SKC,0.00,VWS V13.01,2013-04-19 01:44:00,
2013-04-18 20:49:00,75.6,74.7,29.74,SSW,210,6.3,6.3,97,0.00,,SKC,0.00,VWS V13.01,2013-04-19 01:49:00,
2013-04-18 20:54:00,75.7,74.8,29.74,South,185,4.0,7.6,97,0.00,,SKC,0.00,VWS V13.01,2013-04-19 01:54:00,
2013-04-18 20:59:00,75.6,74.7,29.74,South,186,8.3,10.1,97,0.00,,SKC,0.00,VWS V13.01,2013-04-19 01:59:00,
2013-04-18 21:04:00,75.6,74.7,29.74,South,191,7.6,8.3,97,0.00,,SKC,0.00,VWS V13.01,2013-04-19 02:04:00,
2013-04-18 21:09:00,75.6,75.0,29.74,SSW,209,7.6,8.3,98,0.00,,SKC,0.00,VWS V13.01,2013-04-19 02:09:00,
2013-04-18 21:14:00,75.4,75.1,29.74,SSE,168,10.5,10.5,99,0.00,,SKC,0.00,VWS V13.01,2013-04-19 02:14:00,
2013-04-18 21:19:00,75.4,75.1,29.74,South,176,8.7,8.7,99,0.00,,SKC,0.00,VWS V13.01,2013-04-19 02:19:00,
2013-04-18 21:24:00,75.4,75.4,29.74,SSE,156,8.1,8.7,100,0.00,,SKC,0.00,VWS V13.01,2013-04-19 02:24:00,
2013-04-18 21:29:00,75.4,75.4,29.74,South,176,5.4,6.3,100,0.00,,SKC,0.00,VWS V13.01,2013-04-19 02:29:00,
2013-04-18 21:34:00,75.4,75.4,29.74,SSE,155,8.7,8.7,100,0.00,,SKC,0.00,VWS V13.01,2013-04-19 02:34:00,
2013-04-18 21:39:00,75.4,75.4,29.74,SSE,157,8.1,8.1,100,0.00,,SKC,0.00,VWS V13.01,2013-04-19 02:39:00,
2013-04-18 21:44:00,75.4,75.4,29.74,South,187,8.7,8.7,100,0.00,,SKC,0.00,VWS V13.01,2013-04-19 02:44:00,
2013-04-18 21:49:00,75.6,75.6,29.74,WSW,237,8.7,8.7,100,0.00,,SKC,0.00,VWS V13.01,2013-04-19 02:49:00,
2013-04-18 21:54:00,75.4,75.4,29.74,SSE,167,5.4,5.8,100,0.00,,SKC,0.00,VWS V13.01,2013-04-19 02:54:00,
2013-04-18 21:59:00,75.6,75.6,29.74,SSW,195,8.1,8.1,100,0.00,,SKC,0.00,VWS V13.01,2013-04-19 02:59:00,
2013-04-18 22:04:00,75.6,75.6,29.74,South,188,8.1,8.1,100,0.00,,SKC,0.00,VWS V13.01,2013-04-19 03:04:00,
2013-04-18 22:09:00,75.6,75.6,29.74,South,176,4.0,4.0,100,0.00,,SKC,0.00,VWS V13.01,2013-04-19 03:09:00,
2013-04-18 22:14:00,75.7,75.8,29.74,SE,134,3.1,3.1,100,0.00,,SKC,0.00,VWS V13.01,2013-04-19 03:14:00,
2013-04-18 22:19:00,75.7,75.8,29.74,SSE,148,3.6,4.0,100,0.00,,SKC,0.00,VWS V13.01,2013-04-19 03:19:00,
2013-04-18 22:24:00,75.7,75.8,29.74,WSW,240,6.3,6.3,100,0.00,,SKC,0.00,VWS V13.01,2013-04-19 03:24:00,
2013-04-18 22:29:00,75.7,75.8,29.74,South,175,3.6,4.0,100,0.00,,SKC,0.00,VWS V13.01,2013-04-19 03:29:00,
2013-04-18 22:34:00,75.7,75.8,29.74,WSW,242,6.3,6.3,100,0.00,,SKC,0.00,VWS V13.01,2013-04-19 03:34:00,
2013-04-18 22:39:00,75.7,75.8,29.74,South,183,4.0,4.0,100,0.00,,SKC,0.00,VWS V13.01,2013-04-19 03:39:00,
2013-04-18 22:44:00,75.7,75.8,29.74,South,186,3.6,4.0,100,0.00,,SKC,0.00,VWS V13.01,2013-04-19 03:44:00,
2013-04-18 22:49:00,75.7,75.8,29.71,West,266,2.7,7.6,100,0.00,,SKC,0.00,VWS V13.01,2013-04-19 03:49:00,
2013-04-18 22:54:00,75.7,75.8,29.71,SSE,148,7.6,7.6,100,0.00,,SKC,0.00,VWS V13.01,2013-04-19 03:54:00,
2013-04-18 22:59:00,75.7,75.8,29.71,WSW,237,5.4,5.4,100,0.00,,SKC,0.00,VWS V13.01,2013-04-19 03:59:00,
2013-04-18 23:01:00,75.9,75.9,29.74,South,182,4.5,5.8,100,0.00,,SKC,0.00,VWS V13.01,2013-04-19 04:01:00,
2013-04-18 23:06:00,75.9,75.9,29.74,South,191,8.1,8.3,100,0.00,,SKC,0.00,VWS V13.01,2013-04-19 04:06:00,
2013-04-18 23:11:00,75.9,75.9,29.74,South,171,8.1,8.1,100,0.00,,SKC,0.00,VWS V13.01,2013-04-19 04:11:00,
2013-04-18 23:16:00,75.9,75.9,29.74,SW,216,4.9,5.4,100,0.00,,SKC,0.00,VWS V13.01,2013-04-19 04:16:00,
2013-04-18 23:21:00,75.9,75.9,29.74,SSE,158,5.4,5.8,100,0.00,,SKC,0.00,VWS V13.01,2013-04-19 04:21:00,
2013-04-18 23:26:00,75.9,75.9,29.74,SW,229,3.6,6.3,100,0.00,,SKC,0.00,VWS V13.01,2013-04-19 04:26:00,
2013-04-18 23:31:00,75.9,75.9,29.74,South,175,4.9,5.8,100,0.00,,SKC,0.00,VWS V13.01,2013-04-19 04:31:00,
2013-04-18 23:36:00,75.9,75.6,29.74,SSE,157,3.1,3.1,99,0.00,,SKC,0.00,VWS V13.01,2013-04-19 04:36:00,
2013-04-18 23:41:00,75.7,75.4,29.74,South,169,3.6,9.6,99,0.00,,SKC,0.00,VWS V13.01,2013-04-19 04:41:00,
2013-04-18 23:46:00,75.7,75.4,29.71,SSW,195,5.8,6.3,99,0.00,,SKC,0.00,VWS V13.01,2013-04-19 04:46:00,
2013-04-18 23:51:00,75.7,75.8,29.71,WSW,247,3.1,12.3,100,0.00,,SKC,0.00,VWS V13.01,2013-04-19 04:51:00,
2013-04-18 23:56:00,75.7,75.8,29.71,South,172,3.6,11.0,100,0.00,,SKC,0.00,VWS V13.01,2013-04-19 04:56:00,